GW3906 Weather Reports


Display with metric or nautical units.
time (UTC)temp
F
wind
direction
speed
MPH
gust
MPH
rain 1hr
in
rain 24hr
in
rain mn
in
humidity
%
barometer
mb
20260506195604 43 360 4.0 10.0 0.00 0.00 0.00 49 1016.0
20260506195504 43 360 5.0 10.0 0.00 0.00 0.00 47 1016.0
20260506195404 43 360 4.0 10.0 0.00 0.00 0.00 49 1016.0
20260506195306 42 360 3.0 7.0 0.00 0.00 0.00 49 1016.1
20260506195218 42 360 3.0 6.0 0.00 0.00 0.00 49 1016.0
20260506195104 42 360 4.0 13.0 0.00 0.00 0.00 49 1016.1
20260506195003 42 360 5.0 13.0 0.00 0.00 0.00 49 1016.1
20260506194903 42 360 5.0 13.0 0.00 0.00 0.00 49 1016.1
20260506194803 42 360 5.0 13.0 0.00 0.00 0.00 49 1016.1
20260506194704 42 360 5.0 13.0 0.00 0.00 0.00 48 1016.1
20260506194617 42 360 5.0 13.0 0.00 0.00 0.00 48 1016.1
20260506194504 42 360 5.0 13.0 0.00 0.00 0.00 48 1016.2
20260506194404 42 360 5.0 13.0 0.00 0.00 0.00 49 1016.1
20260506194304 42 360 5.0 13.0 0.00 0.00 0.00 49 1016.2
20260506194203 42 360 5.0 13.0 0.00 0.00 0.00 49 1016.1
20260506194103 42 360 4.0 13.0 0.00 0.00 0.00 50 1016.1
20260506194017 42 360 4.0 13.0 0.00 0.00 0.00 50 1016.1
20260506193904 42 360 3.0 5.0 0.00 0.00 0.00 50 1016.2
20260506193803 42 360 3.0 5.0 0.00 0.00 0.00 50 1016.1
20260506193703 42 360 3.0 10.0 0.00 0.00 0.00 49 1016.2
20260506193604 42 360 3.0 10.0 0.00 0.00 0.00 48 1016.1
20260506193504 43 360 4.0 10.0 0.00 0.00 0.00 48 1016.1
20260506193403 43 360 3.0 10.0 0.00 0.00 0.00 48 1016.2
20260506193304 43 360 4.0 10.0 0.00 0.00 0.00 49 1016.1
20260506193203 43 360 4.0 10.0 0.00 0.00 0.00 49 1016.1
20260506193104 43 360 4.0 10.0 0.00 0.00 0.00 49 1016.1
20260506193017 43 360 4.0 10.0 0.00 0.00 0.00 49 1016.3
20260506192904 43 360 4.0 10.0 0.00 0.00 0.00 49 1016.2
20260506192803 43 360 4.0 10.0 0.00 0.00 0.00 49 1016.1
20260506192703 43 360 4.0 10.0 0.00 0.00 0.00 49 1016.1
20260506192603 43 360 4.0 9.0 0.00 0.00 0.00 50 1016.1
20260506192504 43 360 4.0 9.0 0.00 0.00 0.00 50 1016.2
20260506192403 43 360 4.0 9.0 0.00 0.00 0.00 50 1016.1
20260506192305 42 360 4.0 9.0 0.00 0.00 0.00 50 1016.2
20260506192203 42 360 4.0 9.0 0.00 0.00 0.00 50 1016.2
20260506192104 42 360 3.0 9.0 0.00 0.00 0.00 49 1016.1
20260506192003 42 360 3.0 7.0 0.00 0.00 0.00 50 1016.1
20260506191903 42 360 3.0 7.0 0.00 0.00 0.00 50 1016.1
20260506191804 42 360 3.0 11.0 0.00 0.00 0.00 50 1016.1
20260506191703 42 360 4.0 11.0 0.00 0.00 0.00 49 1016.2
20260506191603 42 360 4.0 11.0 0.00 0.00 0.00 49 1016.1
20260506191503 42 360 4.0 11.0 0.00 0.00 0.00 50 1016.2
20260506191403 42 360 4.0 11.0 0.00 0.00 0.00 50 1016.2
20260506191317 42 360 5.0 11.0 0.00 0.00 0.00 50 1016.1
20260506191204 42 360 5.0 11.0 0.00 0.00 0.00 50 1016.1
20260506191103 42 360 5.0 11.0 0.00 0.00 0.00 50 1016.2
20260506191003 42 360 6.0 11.0 0.00 0.00 0.00 50 1016.1
20260506190903 42 360 6.0 11.0 0.00 0.00 0.00 50 1016.1
20260506190803 42 360 5.0 11.0 0.00 0.00 0.00 49 1016.1
20260506190703 42 360 5.0 10.0 0.00 0.00 0.00 49 1016.2
20260506190603 42 360 5.0 10.0 0.00 0.00 0.00 49 1016.2
20260506190504 42 360 5.0 10.0 0.00 0.00 0.00 50 1016.2
20260506190403 42 360 5.0 10.0 0.00 0.00 0.00 50 1016.2
20260506190317 42 360 4.0 10.0 0.00 0.00 0.00 48 1016.1
20260506190203 42 360 5.0 12.0 0.00 0.00 0.00 51 1016.2
20260506190118 42 360 4.0 12.0 0.00 0.00 0.00 51 1016.1
20260506190004 42 360 4.0 12.0 0.00 0.00 0.00 50 1016.1
20260506185904 42 360 4.0 12.0 0.00 0.00 0.00 51 1016.1
20260506185803 42 360 4.0 12.0 0.00 0.00 0.00 51 1016.1
20260506185703 42 360 5.0 12.0 0.00 0.00 0.00 50 1016.1
20260506185617 42 360 5.0 12.0 0.00 0.00 0.00 51 1016.1
20260506185504 42 360 5.0 12.0 0.00 0.00 0.00 51 1016.2
20260506185404 42 360 5.0 12.0 0.00 0.00 0.00 50 1016.2
20260506185306 42 360 5.0 12.0 0.00 0.00 0.00 50 1016.2
20260506185204 42 360 5.0 12.0 0.00 0.00 0.00 49 1016.2
20260506185104 42 360 5.0 10.0 0.00 0.00 0.00 50 1016.1
20260506185003 42 360 4.0 10.0 0.00 0.00 0.00 50 1016.1
20260506184904 42 360 4.0 10.0 0.00 0.00 0.00 50 1016.2
20260506184803 42 360 4.0 10.0 0.00 0.00 0.00 49 1016.1
20260506184704 42 360 3.0 10.0 0.00 0.00 0.00 50 1016.2
20260506184603 42 360 3.0 8.0 0.00 0.00 0.00 50 1016.2
20260506184503 42 360 3.0 8.0 0.00 0.00 0.00 50 1016.2
20260506184417 42 360 3.0 8.0 0.00 0.00 0.00 50 1016.2
20260506184303 42 360 3.0 10.0 0.00 0.00 0.00 51 1016.3
20260506184204 42 360 3.0 10.0 0.00 0.00 0.00 51 1016.2
20260506184104 42 360 3.0 10.0 0.00 0.00 0.00 52 1016.2
20260506184003 42 360 4.0 11.0 0.00 0.00 0.00 51 1016.2
20260506183904 42 360 5.0 11.0 0.00 0.00 0.00 51 1016.2
20260506183817 42 360 5.0 11.0 0.00 0.00 0.00 51 1016.2
20260506183705 42 360 5.0 11.0 0.00 0.00 0.00 51 1016.2
20260506183604 42 360 5.0 11.0 0.00 0.00 0.00 50 1016.3
20260506183517 42 360 5.0 11.0 0.00 0.00 0.00 50 1016.2
20260506183403 42 360 5.0 11.0 0.00 0.00 0.00 50 1016.1
20260506183317 42 360 6.0 11.0 0.00 0.00 0.00 50 1016.3
20260506183203 42 360 7.0 14.0 0.00 0.00 0.00 51 1016.2
20260506183103 42 360 7.0 14.0 0.00 0.00 0.00 50 1016.2
20260506183017 42 360 7.0 14.0 0.00 0.00 0.00 50 1016.1
20260506182904 42 360 7.0 14.0 0.00 0.00 0.00 50 1016.2
20260506182804 42 360 6.0 14.0 0.00 0.00 0.00 51 1016.1
20260506182704 41 360 6.0 14.0 0.00 0.00 0.00 51 1016.1
20260506182603 42 360 6.0 14.0 0.00 0.00 0.00 49 1016.1
20260506182503 42 360 7.0 14.0 0.00 0.00 0.00 48 1016.2
20260506182403 42 360 7.0 14.0 0.00 0.00 0.00 49 1016.2
20260506182319 42 360 7.0 14.0 0.00 0.00 0.00 50 1016.3
20260506182204 42 360 6.0 14.0 0.00 0.00 0.00 50 1016.3
20260506182103 42 360 5.0 11.0 0.00 0.00 0.00 50 1016.3
20260506182004 42 360 4.0 11.0 0.00 0.00 0.00 51 1016.2
20260506181917 42 360 4.0 11.0 0.00 0.00 0.00 50 1016.2
20260506181803 42 360 4.0 11.0 0.00 0.00 0.00 50 1016.1
20260506181703 42 360 4.0 11.0 0.00 0.00 0.00 50 1016.2
20260506181603 42 360 4.0 11.0 0.00 0.00 0.00 50 1016.2
20260506181503 42 360 4.0 11.0 0.00 0.00 0.00 50 1016.2
20260506181403 42 360 5.0 12.0 0.00 0.00 0.00 50 1016.2
20260506181304 42 360 5.0 12.0 0.00 0.00 0.00 49 1016.2
20260506181203 42 360 5.0 12.0 0.00 0.00 0.00 50 1016.2
20260506181103 42 360 5.0 12.0 0.00 0.00 0.00 50 1016.2
20260506181017 42 360 5.0 12.0 0.00 0.00 0.00 50 1016.2
20260506180904 42 360 6.0 12.0 0.00 0.00 0.00 51 1016.2
20260506180804 42 360 6.0 12.0 0.00 0.00 0.00 50 1016.2
20260506180718 42 360 5.0 12.0 0.00 0.00 0.00 49 1016.2
20260506180603 42 360 5.0 12.0 0.00 0.00 0.00 49 1016.3
20260506180503 42 360 5.0 12.0 0.00 0.00 0.00 49 1016.3
20260506180404 42 360 5.0 12.0 0.00 0.00 0.00 49 1016.3
20260506180303 42 360 4.0 12.0 0.00 0.00 0.00 51 1016.3
20260506180204 42 360 4.0 12.0 0.00 0.00 0.00 50 1016.3
20260506180104 42 360 4.0 12.0 0.00 0.00 0.00 51 1016.3
20260506180005 42 360 5.0 12.0 0.00 0.00 0.00 50 1016.2
20260506175903 42 360 4.0 12.0 0.00 0.00 0.00 50 1016.3
20260506175804 42 360 4.0 9.0 0.00 0.00 0.00 51 1016.3
20260506175703 42 360 4.0 9.0 0.00 0.00 0.00 51 1016.3
20260506175604 42 360 5.0 10.0 0.00 0.00 0.00 51 1016.2
20260506175518 42 360 5.0 10.0 0.00 0.00 0.00 51 1016.2
20260506175418 42 360 5.0 10.0 0.00 0.00 0.00 51 1016.3
20260506175306 42 360 5.0 10.0 0.00 0.00 0.00 51 1016.3
20260506175204 42 360 4.0 10.0 0.00 0.00 0.00 52 1016.3
20260506175104 42 360 4.0 10.0 0.00 0.00 0.00 51 1016.3
20260506175004 42 360 4.0 10.0 0.00 0.00 0.00 51 1016.3
20260506174903 41 360 4.0 10.0 0.00 0.00 0.00 51 1016.3
20260506174803 42 360 4.0 10.0 0.00 0.00 0.00 51 1016.3
20260506174717 41 360 4.0 10.0 0.00 0.00 0.00 51 1016.3
20260506174603 41 360 4.0 10.0 0.00 0.00 0.00 52 1016.3
20260506174503 41 360 4.0 12.0 0.00 0.00 0.00 52 1016.3
20260506174403 41 360 4.0 12.0 0.00 0.00 0.00 52 1016.3
20260506174303 41 360 5.0 12.0 0.00 0.00 0.00 52 1016.4
20260506174204 41 360 5.0 12.0 0.00 0.00 0.00 52 1016.4
20260506174103 41 360 5.0 12.0 0.00 0.00 0.00 51 1016.4
20260506174004 41 360 5.0 12.0 0.00 0.00 0.00 51 1016.4
20260506173903 41 360 5.0 12.0 0.00 0.00 0.00 51 1016.4
20260506173817 41 360 5.0 12.0 0.00 0.00 0.00 51 1016.3
20260506173704 41 360 5.0 12.0 0.00 0.00 0.00 50 1016.4
20260506173618 41 360 5.0 12.0 0.00 0.00 0.00 50 1016.4
20260506173503 41 360 5.0 12.0 0.00 0.00 0.00 50 1016.4
20260506173404 41 360 5.0 10.0 0.00 0.00 0.00 52 1016.4
20260506173317 41 360 5.0 10.0 0.00 0.00 0.00 52 1016.4
20260506173203 41 360 4.0 9.0 0.00 0.00 0.00 52 1016.3
20260506173104 41 360 5.0 9.0 0.00 0.00 0.00 52 1016.4
20260506173003 41 360 5.0 9.0 0.00 0.00 0.00 52 1016.4
20260506172903 40 360 5.0 9.0 0.00 0.00 0.00 52 1016.4
20260506172803 40 360 5.0 9.0 0.00 0.00 0.00 52 1016.4
20260506172704 40 360 5.0 9.0 0.00 0.00 0.00 51 1016.5
20260506172603 41 360 4.0 8.0 0.00 0.00 0.00 51 1016.4
20260506172504 41 360 5.0 13.0 0.00 0.00 0.00 52 1016.5
20260506172403 41 360 5.0 13.0 0.00 0.00 0.00 52 1016.4
20260506172307 41 360 5.0 13.0 0.00 0.00 0.00 52 1016.4
20260506172204 41 360 5.0 13.0 0.00 0.00 0.00 50 1016.4
20260506172103 41 360 5.0 13.0 0.00 0.00 0.00 51 1016.4
20260506172003 41 360 5.0 13.0 0.00 0.00 0.00 51 1016.4
20260506171903 41 360 5.0 13.0 0.00 0.00 0.00 51 1016.3
20260506171803 41 360 5.0 13.0 0.00 0.00 0.00 51 1016.4
20260506171703 41 360 5.0 13.0 0.00 0.00 0.00 51 1016.4
20260506171603 41 360 5.0 13.0 0.00 0.00 0.00 51 1016.4
20260506171503 41 360 6.0 13.0 0.00 0.00 0.00 52 1016.4
20260506171403 41 360 5.0 9.0 0.00 0.00 0.00 51 1016.5
20260506171304 41 360 5.0 14.0 0.00 0.00 0.00 50 1016.5
20260506171203 41 360 5.0 14.0 0.00 0.00 0.00 50 1016.4
20260506171104 41 360 5.0 14.0 0.00 0.00 0.00 50 1016.5
20260506171003 41 360 5.0 14.0 0.00 0.00 0.00 51 1016.5
20260506170903 41 360 5.0 14.0 0.00 0.00 0.00 51 1016.6
20260506170803 41 360 5.0 14.0 0.00 0.00 0.00 51 1016.5
20260506170704 41 360 5.0 14.0 0.00 0.00 0.00 52 1016.5
20260506170603 41 360 5.0 14.0 0.00 0.00 0.00 52 1016.6
20260506170503 41 360 5.0 14.0 0.00 0.00 0.00 52 1016.5
20260506170403 41 360 5.0 14.0 0.00 0.00 0.00 51 1016.6
20260506170304 41 360 4.0 14.0 0.00 0.00 0.00 51 1016.7
20260506170217 41 360 5.0 16.0 0.00 0.00 0.00 52 1016.6
20260506170103 41 360 5.0 16.0 0.00 0.00 0.00 51 1016.7
20260506170004 41 360 6.0 16.0 0.00 0.00 0.00 52 1016.6
20260506165917 41 360 6.0 16.0 0.00 0.00 0.00 52 1016.6
20260506165803 41 360 6.0 16.0 0.00 0.00 0.00 52 1016.6
20260506165703 41 360 6.0 16.0 0.00 0.00 0.00 52 1016.6
20260506165603 41 360 6.0 16.0 0.00 0.00 0.00 52 1016.6
20260506165504 41 360 6.0 16.0 0.00 0.00 0.00 52 1016.6
20260506165404 40 360 7.0 16.0 0.00 0.00 0.00 52 1016.6
20260506165305 40 360 7.0 16.0 0.00 0.00 0.00 52 1016.5
20260506165203 40 360 6.0 16.0 0.00 0.00 0.00 51 1016.5
20260506165103 40 360 6.0 16.0 0.00 0.00 0.00 52 1016.5
20260506165003 40 360 5.0 16.0 0.00 0.00 0.00 52 1016.5
20260506164903 40 360 5.0 12.0 0.00 0.00 0.00 52 1016.5
20260506164804 40 360 5.0 12.0 0.00 0.00 0.00 52 1016.5
20260506164703 40 360 5.0 12.0 0.00 0.00 0.00 52 1016.5
20260506164604 40 360 5.0 12.0 0.00 0.00 0.00 52 1016.5
20260506164503 40 360 5.0 12.0 0.00 0.00 0.00 52 1016.5
20260506164404 40 360 5.0 12.0 0.00 0.00 0.00 52 1016.5
20260506164304 40 360 5.0 12.0 0.00 0.00 0.00 52 1016.5
20260506164203 40 360 4.0 12.0 0.00 0.00 0.00 52 1016.5
20260506164117 40 360 5.0 12.0 0.00 0.00 0.00 52 1016.6
20260506164003 40 360 5.0 12.0 0.00 0.00 0.00 52 1016.6
20260506163917 40 360 5.0 12.0 0.00 0.00 0.00 52 1016.6
20260506163803 40 360 5.0 12.0 0.00 0.00 0.00 52 1016.7
20260506163703 40 360 5.0 12.0 0.00 0.00 0.00 52 1016.6
20260506163603 40 360 5.0 12.0 0.00 0.00 0.00 52 1016.5
20260506163503 40 360 5.0 12.0 0.00 0.00 0.00 52 1016.6
20260506163403 40 360 6.0 12.0 0.00 0.00 0.00 52 1016.5
20260506163303 40 360 6.0 12.0 0.00 0.00 0.00 52 1016.6
20260506163204 40 360 6.0 12.0 0.00 0.00 0.00 52 1016.5
20260506163103 40 360 5.0 12.0 0.00 0.00 0.00 51 1016.5
20260506163003 40 360 5.0 10.0 0.00 0.00 0.00 51 1016.5
20260506162903 40 360 5.0 15.0 0.00 0.00 0.00 52 1016.5
20260506162803 40 360 5.0 15.0 0.00 0.00 0.00 52 1016.5
20260506162717 40 360 6.0 15.0 0.00 0.00 0.00 51 1016.4
20260506162605 40 360 6.0 15.0 0.00 0.00 0.00 52 1016.4
20260506162505 40 360 5.0 15.0 0.00 0.00 0.00 52 1016.4
20260506162404 40 360 6.0 15.0 0.00 0.00 0.00 52 1016.4
20260506162306 40 360 5.0 15.0 0.00 0.00 0.00 52 1016.4
20260506162217 40 360 5.0 15.0 0.00 0.00 0.00 52 1016.4
20260506162118 40 360 5.0 15.0 0.00 0.00 0.00 52 1016.4
20260506162003 40 360 5.0 15.0 0.00 0.00 0.00 52 1016.4
20260506161903 40 360 5.0 15.0 0.00 0.00 0.00 52 1016.4
20260506161804 40 360 5.0 13.0 0.00 0.00 0.00 52 1016.4
20260506161703 40 360 5.0 13.0 0.00 0.00 0.00 51 1016.5
20260506161603 40 360 4.0 13.0 0.00 0.00 0.00 51 1016.5
20260506161503 40 360 4.0 13.0 0.00 0.00 0.00 51 1016.4
20260506161417 40 360 4.0 13.0 0.00 0.00 0.00 52 1016.5
20260506161303 40 360 5.0 13.0 0.00 0.00 0.00 51 1016.4
20260506161217 40 360 4.0 13.0 0.00 0.00 0.00 51 1016.4
20260506161103 40 360 4.0 10.0 0.00 0.00 0.00 53 1016.4
20260506161003 40 360 4.0 10.0 0.00 0.00 0.00 53 1016.4
20260506160903 40 360 6.0 14.0 0.00 0.00 0.00 53 1016.4
20260506160803 40 360 6.0 14.0 0.00 0.00 0.00 53 1016.4
20260506160717 40 360 6.0 14.0 0.00 0.00 0.00 53 1016.4
20260506160603 40 360 6.0 14.0 0.00 0.00 0.00 52 1016.4
20260506160503 40 360 6.0 14.0 0.00 0.00 0.00 52 1016.4
20260506160417 40 360 6.0 14.0 0.00 0.00 0.00 52 1016.4
20260506160317 40 360 6.0 14.0 0.00 0.00 0.00 52 1016.4
20260506160203 40 360 6.0 14.0 0.00 0.00 0.00 51 1016.4
20260506160103 40 360 6.0 14.0 0.00 0.00 0.00 51 1016.4
20260506160003 40 360 6.0 14.0 0.00 0.00 0.00 51 1016.4
20260506155903 40 360 5.0 14.0 0.00 0.00 0.00 53 1016.3
20260506155803 40 360 4.0 9.0 0.00 0.00 0.00 53 1016.4
20260506155703 40 360 4.0 9.0 0.00 0.00 0.00 53 1016.4
20260506155603 40 360 5.0 9.0 0.00 0.00 0.00 53 1016.4
20260506155517 40 360 6.0 16.0 0.00 0.00 0.00 54 1016.3
20260506155403 40 360 6.0 16.0 0.00 0.00 0.00 54 1016.3
20260506155306 40 360 6.0 16.0 0.00 0.00 0.00 53 1016.4
20260506155203 40 360 6.0 16.0 0.00 0.00 0.00 54 1016.4
20260506155117 40 360 6.0 16.0 0.00 0.00 0.00 54 1016.4
20260506155004 40 360 6.0 16.0 0.00 0.00 0.00 54 1016.4
20260506154903 40 360 6.0 16.0 0.00 0.00 0.00 53 1016.4
20260506154803 40 360 6.0 16.0 0.00 0.00 0.00 54 1016.3
20260506154703 40 360 6.0 16.0 0.00 0.00 0.00 53 1016.3
20260506154603 40 360 6.0 16.0 0.00 0.00 0.00 54 1016.3
20260506154517 40 360 5.0 16.0 0.00 0.00 0.00 54 1016.3
20260506154418 40 360 4.0 12.0 0.00 0.00 0.00 54 1016.4
20260506154304 40 360 4.0 12.0 0.00 0.00 0.00 53 1016.3
20260506154203 40 360 4.0 12.0 0.00 0.00 0.00 54 1016.3
20260506154104 40 360 5.0 12.0 0.00 0.00 0.00 53 1016.3
20260506154004 40 360 6.0 12.0 0.00 0.00 0.00 53 1016.3
20260506153904 40 360 5.0 12.0 0.00 0.00 0.00 54 1016.3
20260506153803 40 360 5.0 10.0 0.00 0.00 0.00 54 1016.3
20260506153703 40 360 5.0 10.0 0.00 0.00 0.00 54 1016.3
20260506153603 40 360 5.0 10.0 0.00 0.00 0.00 54 1016.3
20260506153503 40 360 5.0 10.0 0.00 0.00 0.00 54 1016.3
20260506153403 39 360 5.0 10.0 0.00 0.00 0.00 54 1016.3
20260506153303 39 360 5.0 10.0 0.00 0.00 0.00 55 1016.3
20260506153217 39 360 5.0 10.0 0.00 0.00 0.00 54 1016.3
20260506153103 39 360 5.0 10.0 0.00 0.00 0.00 54 1016.3
20260506153017 39 360 5.0 10.0 0.00 0.00 0.00 55 1016.4
20260506152903 39 360 4.0 9.0 0.00 0.00 0.00 55 1016.3
20260506152804 39 360 4.0 9.0 0.00 0.00 0.00 55 1016.3
20260506152717 39 360 5.0 9.0 0.00 0.00 0.00 56 1016.4
20260506152603 39 360 5.0 9.0 0.00 0.00 0.00 55 1016.3
20260506152504 39 360 5.0 9.0 0.00 0.00 0.00 55 1016.3
20260506152417 39 360 4.0 9.0 0.00 0.00 0.00 55 1016.4
20260506152305 39 360 4.0 9.0 0.00 0.00 0.00 55 1016.3
20260506152203 39 360 4.0 9.0 0.00 0.00 0.00 55 1016.4
20260506152103 39 360 4.0 9.0 0.00 0.00 0.00 55 1016.3
20260506152003 39 360 4.0 9.0 0.00 0.00 0.00 55 1016.3
20260506151903 39 360 4.0 9.0 0.00 0.00 0.00 55 1016.4
20260506151817 39 360 4.0 9.0 0.00 0.00 0.00 55 1016.4
20260506151704 39 360 4.0 7.0 0.00 0.00 0.00 55 1016.3
20260506151603 39 360 4.0 13.0 0.00 0.00 0.00 55 1016.3
20260506151517 39 360 5.0 13.0 0.00 0.00 0.00 56 1016.4
20260506151403 39 360 5.0 13.0 0.00 0.00 0.00 56 1016.4
20260506151303 39 360 5.0 13.0 0.00 0.00 0.00 56 1016.4
20260506151203 39 360 6.0 13.0 0.00 0.00 0.00 55 1016.4
20260506151103 39 360 6.0 13.0 0.00 0.00 0.00 55 1016.3
20260506151003 39 360 6.0 13.0 0.00 0.00 0.00 55 1016.4
20260506150904 39 360 6.0 13.0 0.00 0.00 0.00 55 1016.3
20260506150817 39 360 6.0 13.0 0.00 0.00 0.00 54 1016.3
20260506150704 39 360 6.0 13.0 0.00 0.00 0.00 54 1016.4
20260506150604 39 360 5.0 13.0 0.00 0.00 0.00 55 1016.3
20260506150504 39 360 5.0 13.0 0.00 0.00 0.00 55 1016.3
20260506150403 39 360 5.0 10.0 0.00 0.00 0.00 55 1016.4
20260506150304 39 360 5.0 10.0 0.00 0.00 0.00 55 1016.3
20260506150203 39 360 4.0 10.0 0.00 0.00 0.00 55 1016.3
20260506150117 39 360 5.0 13.0 0.00 0.00 0.00 54 1016.3
20260506150004 39 360 5.0 13.0 0.00 0.00 0.00 54 1016.3
20260506145903 39 360 5.0 13.0 0.00 0.00 0.00 53 1016.3
20260506145803 39 360 5.0 13.0 0.00 0.00 0.00 53 1016.3
20260506145703 40 360 5.0 13.0 0.00 0.00 0.00 53 1016.3
20260506145603 39 360 5.0 13.0 0.00 0.00 0.00 53 1016.3
20260506145503 39 360 6.0 13.0 0.00 0.00 0.00 53 1016.3
20260506145417 39 360 6.0 13.0 0.00 0.00 0.00 53 1016.3
20260506145305 39 360 6.0 13.0 0.00 0.00 0.00 53 1016.3
20260506145217 39 360 6.0 13.0 0.00 0.00 0.00 51 1016.3
20260506145117 40 360 6.0 13.0 0.00 0.00 0.00 51 1016.3
20260506145017 40 360 7.0 13.0 0.00 0.00 0.00 51 1016.3
20260506144903 40 360 7.0 13.0 0.00 0.00 0.00 51 1016.3
20260506144803 40 360 6.0 13.0 0.00 0.00 0.00 52 1016.3
20260506144703 40 360 6.0 13.0 0.00 0.00 0.00 52 1016.3
20260506144603 40 360 7.0 13.0 0.00 0.00 0.00 52 1016.3
20260506144503 40 360 6.0 13.0 0.00 0.00 0.00 51 1016.3
20260506144404 40 360 6.0 13.0 0.00 0.00 0.00 51 1016.3
20260506144303 40 360 6.0 13.0 0.00 0.00 0.00 51 1016.3
20260506144204 40 360 6.0 13.0 0.00 0.00 0.00 51 1016.3
20260506144104 40 360 6.0 13.0 0.00 0.00 0.00 51 1016.3
20260506144017 40 360 6.0 13.0 0.00 0.00 0.00 51 1016.3
20260506143903 40 360 5.0 12.0 0.00 0.00 0.00 51 1016.1
20260506143803 40 360 5.0 12.0 0.00 0.00 0.00 51 1016.2
20260506143703 40 360 5.0 12.0 0.00 0.00 0.00 51 1016.1
20260506143603 40 360 4.0 12.0 0.00 0.00 0.00 52 1016.1
20260506143518 40 360 4.0 9.0 0.00 0.00 0.00 51 1016.1
20260506143403 40 360 4.0 9.0 0.00 0.00 0.00 51 1016.1
20260506143303 40 360 4.0 9.0 0.00 0.00 0.00 52 1016.2
20260506143203 40 360 4.0 9.0 0.00 0.00 0.00 53 1016.2
20260506143103 40 360 3.0 9.0 0.00 0.00 0.00 53 1016.3
20260506143004 40 360 4.0 8.0 0.00 0.00 0.00 53 1016.3
20260506142917 40 360 3.0 8.0 0.00 0.00 0.00 52 1016.2
20260506142803 40 360 4.0 8.0 0.00 0.00 0.00 53 1016.2
20260506142704 40 360 4.0 8.0 0.00 0.00 0.00 52 1016.3
20260506142603 40 360 4.0 8.0 0.00 0.00 0.00 52 1016.2
20260506142503 40 360 4.0 8.0 0.00 0.00 0.00 52 1016.2
20260506142404 40 360 4.0 10.0 0.00 0.00 0.00 53 1016.3
20260506142306 40 360 5.0 10.0 0.00 0.00 0.00 53 1016.2
20260506142203 40 360 5.0 10.0 0.00 0.00 0.00 53 1016.3
20260506142103 40 360 4.0 10.0 0.00 0.00 0.00 52 1016.2
20260506142003 40 360 5.0 10.0 0.00 0.00 0.00 52 1016.2
20260506141903 40 360 5.0 10.0 0.00 0.00 0.00 52 1016.3
20260506141817 40 360 5.0 10.0 0.00 0.00 0.00 52 1016.2
20260506141717 40 360 5.0 10.0 0.00 0.00 0.00 52 1016.2
20260506141604 40 360 6.0 13.0 0.00 0.00 0.00 52 1016.2
20260506141504 40 360 6.0 13.0 0.00 0.00 0.00 52 1016.2
20260506141403 40 360 6.0 13.0 0.00 0.00 0.00 52 1016.1
20260506141303 40 360 5.0 13.0 0.00 0.00 0.00 52 1016.2
20260506141203 40 360 6.0 13.0 0.00 0.00 0.00 52 1016.1
20260506141103 40 360 7.0 13.0 0.00 0.00 0.00 52 1016.1
20260506141004 41 360 7.0 13.0 0.00 0.00 0.00 52 1016.1
20260506140903 41 360 6.0 13.0 0.00 0.00 0.00 51 1016.2
20260506140817 41 360 6.0 13.0 0.00 0.00 0.00 50 1016.2
20260506140717 41 360 6.0 13.0 0.00 0.00 0.00 50 1016.2
20260506140603 41 360 5.0 13.0 0.00 0.00 0.00 50 1016.2
20260506140503 41 360 6.0 12.0 0.00 0.00 0.00 50 1016.1
20260506140403 41 360 5.0 12.0 0.00 0.00 0.00 50 1016.2
20260506140303 41 360 5.0 12.0 0.00 0.00 0.00 51 1016.1
20260506140203 41 360 5.0 12.0 0.00 0.00 0.00 53 1016.1
20260506140103 41 360 4.0 11.0 0.00 0.00 0.00 53 1016.1
20260506140020 41 360 4.0 7.0 0.00 0.00 0.00 53 1016.1
20260506135905 41 360 4.0 7.0 0.00 0.00 0.00 53 1016.1
20260506135805 41 360 4.0 7.0 0.00 0.00 0.00 52 1016.1
20260506135705 41 360 3.0 7.0 0.00 0.00 0.00 51 1016.1
20260506135605 41 360 3.0 7.0 0.00 0.00 0.00 52 1016.0
20260506135505 41 360 3.0 7.0 0.00 0.00 0.00 53 1016.1
20260506135404 41 360 3.0 6.0 0.00 0.00 0.00 53 1016.0
20260506135306 41 360 3.0 4.0 0.00 0.00 0.00 54 1016.0
20260506135206 41 360 4.0 9.0 0.00 0.00 0.00 55 1016.0
20260506135104 40 360 4.0 9.0 0.00 0.00 0.00 55 1016.0
20260506135005 40 360 4.0 9.0 0.00 0.00 0.00 56 1016.0
20260506134904 40 360 4.0 9.0 0.00 0.00 0.00 56 1016.0
20260506134805 40 360 4.0 9.0 0.00 0.00 0.00 56 1016.0
20260506134704 40 360 4.0 9.0 0.00 0.00 0.00 57 1016.0
20260506134619 40 360 4.0 9.0 0.00 0.00 0.00 57 1015.9
20260506134505 40 360 4.0 9.0 0.00 0.00 0.00 58 1016.0
20260506134405 40 360 4.0 9.0 0.00 0.00 0.00 56 1016.0
20260506134305 40 360 4.0 9.0 0.00 0.00 0.00 56 1016.0
20260506134204 40 360 3.0 9.0 0.00 0.00 0.00 57 1016.0
20260506134104 39 360 2.0 8.0 0.00 0.00 0.00 58 1016.0
20260506134005 39 360 2.0 4.0 0.00 0.00 0.00 59 1015.9
20260506133904 39 360 2.0 4.0 0.00 0.00 0.00 59 1015.9
20260506133805 39 360 3.0 10.0 0.00 0.00 0.00 59 1016.0
20260506133705 39 360 3.0 10.0 0.00 0.00 0.00 59 1015.9
20260506133605 39 360 3.0 10.0 0.00 0.00 0.00 59 1015.9
20260506133505 39 360 3.0 10.0 0.00 0.00 0.00 60 1015.9
20260506133419 38 360 4.0 10.0 0.00 0.00 0.00 60 1015.9
20260506133305 38 360 4.0 10.0 0.00 0.00 0.00 60 1015.9
20260506133205 38 360 4.0 10.0 0.00 0.00 0.00 60 1016.0
20260506133105 38 360 4.0 10.0 0.00 0.00 0.00 60 1016.0
20260506133005 38 360 4.0 10.0 0.00 0.00 0.00 60 1015.9
20260506132905 38 360 4.0 10.0 0.00 0.00 0.00 60 1016.0
20260506132819 38 360 3.0 10.0 0.00 0.00 0.00 60 1016.0
20260506132705 38 360 3.0 6.0 0.00 0.00 0.00 61 1015.9
20260506132619 37 360 3.0 6.0 0.00 0.00 0.00 61 1015.9
20260506132504 37 360 3.0 7.0 0.00 0.00 0.00 61 1015.9
20260506132419 37 360 3.0 7.0 0.00 0.00 0.00 62 1015.9
20260506132319 37 360 3.0 7.0 0.00 0.00 0.00 63 1015.9
20260506132205 37 360 3.0 7.0 0.00 0.00 0.00 63 1015.9
20260506132104 36 360 3.0 7.0 0.00 0.00 0.00 63 1015.8
20260506132005 36 360 3.0 7.0 0.00 0.00 0.00 63 1015.9
20260506131905 36 360 3.0 7.0 0.00 0.00 0.00 63 1015.8
20260506131805 36 360 3.0 7.0 0.00 0.00 0.00 62 1015.8
20260506131705 36 360 4.0 7.0 0.00 0.00 0.00 62 1015.8
20260506131604 36 360 3.0 7.0 0.00 0.00 0.00 62 1015.8
20260506131505 36 360 3.0 7.0 0.00 0.00 0.00 64 1015.8
20260506131418 36 360 3.0 5.0 0.00 0.00 0.00 64 1015.8
20260506131319 36 360 2.0 5.0 0.00 0.00 0.00 64 1015.7
20260506131218 36 360 2.0 5.0 0.00 0.00 0.00 64 1015.8
20260506131105 36 360 2.0 6.0 0.00 0.00 0.00 64 1015.7
20260506131005 36 360 2.0 6.0 0.00 0.00 0.00 63 1015.7
20260506130905 36 360 3.0 6.0 0.00 0.00 0.00 63 1015.7
20260506130805 36 360 3.0 6.0 0.00 0.00 0.00 63 1015.6
20260506130705 36 360 3.0 6.0 0.00 0.00 0.00 64 1015.6
20260506130604 36 360 3.0 6.0 0.00 0.00 0.00 64 1015.6
20260506130505 36 360 3.0 6.0 0.00 0.00 0.00 64 1015.6
20260506130404 36 360 3.0 6.0 0.00 0.00 0.00 64 1015.6
20260506130319 36 360 3.0 6.0 0.00 0.00 0.00 64 1015.6
20260506130205 36 360 3.0 6.0 0.00 0.00 0.00 64 1015.5
20260506130105 36 360 3.0 6.0 0.00 0.00 0.00 65 1015.6
20260506130006 36 360 2.0 5.0 0.00 0.00 0.00 64 1015.5
20260506125905 36 360 2.0 5.0 0.00 0.00 0.00 65 1015.5
20260506125819 35 360 2.0 5.0 0.00 0.00 0.00 65 1015.5
20260506125705 35 360 2.0 4.0 0.00 0.00 0.00 65 1015.5
20260506125605 35 360 2.0 4.0 0.00 0.00 0.00 65 1015.5
20260506125505 35 360 2.0 5.0 0.00 0.00 0.00 65 1015.5
20260506125405 35 360 2.0 5.0 0.00 0.00 0.00 65 1015.5
20260506125319 35 360 2.0 5.0 0.00 0.00 0.00 65 1015.5
20260506125205 35 360 2.0 5.0 0.00 0.00 0.00 65 1015.5
20260506125104 35 360 2.0 5.0 0.00 0.00 0.00 65 1015.4
20260506125019 35 360 2.0 5.0 0.00 0.00 0.00 65 1015.4
20260506124906 35 360 2.0 5.0 0.00 0.00 0.00 65 1015.4
20260506124805 35 360 3.0 5.0 0.00 0.00 0.00 65 1015.4
20260506124705 35 360 3.0 5.0 0.00 0.00 0.00 65 1015.4
20260506124604 35 360 3.0 5.0 0.00 0.00 0.00 65 1015.4
20260506124505 35 360 3.0 5.0 0.00 0.00 0.00 65 1015.4
20260506124404 35 360 3.0 5.0 0.00 0.00 0.00 65 1015.4
20260506124304 35 360 3.0 5.0 0.00 0.00 0.00 65 1015.4
20260506124204 35 360 2.0 5.0 0.00 0.00 0.00 65 1015.4
20260506124105 35 360 3.0 5.0 0.00 0.00 0.00 65 1015.4
20260506124004 35 360 2.0 5.0 0.00 0.00 0.00 65 1015.5
20260506123905 35 360 2.0 5.0 0.00 0.00 0.00 65 1015.5
20260506123819 35 360 2.0 9.0 0.00 0.00 0.00 65 1015.5
20260506123704 35 360 3.0 9.0 0.00 0.00 0.00 65 1015.6
20260506123618 35 360 3.0 9.0 0.00 0.00 0.00 66 1015.5
20260506123504 35 360 3.0 9.0 0.00 0.00 0.00 66 1015.6
20260506123418 35 360 3.0 9.0 0.00 0.00 0.00 66 1015.5
20260506123305 35 360 3.0 9.0 0.00 0.00 0.00 66 1015.5
20260506123205 35 360 3.0 9.0 0.00 0.00 0.00 66 1015.5
20260506123104 35 360 3.0 9.0 0.00 0.00 0.00 66 1015.5
20260506123005 35 360 3.0 9.0 0.00 0.00 0.00 66 1015.5
20260506122919 35 360 3.0 9.0 0.00 0.00 0.00 66 1015.4
20260506122805 35 360 2.0 9.0 0.00 0.00 0.00 67 1015.4
20260506122704 35 360 2.0 5.0 0.00 0.00 0.00 67 1015.4
20260506122604 35 360 2.0 4.0 0.00 0.00 0.00 67 1015.4
20260506122505 35 360 2.0 3.0 0.00 0.00 0.00 67 1015.3
20260506122405 34 360 2.0 6.0 0.00 0.00 0.00 68 1015.4
20260506122306 34 360 2.0 6.0 0.00 0.00 0.00 68 1015.3
20260506122204 34 360 3.0 6.0 0.00 0.00 0.00 68 1015.3
20260506122105 34 360 2.0 6.0 0.00 0.00 0.00 68 1015.3
20260506122004 34 360 3.0 6.0 0.00 0.00 0.00 68 1015.3
20260506121905 34 360 2.0 6.0 0.00 0.00 0.00 68 1015.3
20260506121805 34 360 2.0 6.0 0.00 0.00 0.00 68 1015.2
20260506121705 34 360 3.0 6.0 0.00 0.00 0.00 69 1015.2
20260506121605 34 360 3.0 6.0 0.00 0.00 0.00 69 1015.2
20260506121505 34 360 3.0 6.0 0.00 0.00 0.00 69 1015.2
20260506121405 34 360 3.0 6.0 0.00 0.00 0.00 69 1015.2
20260506121305 34 360 2.0 5.0 0.00 0.00 0.00 69 1015.1
20260506121205 33 360 2.0 5.0 0.00 0.00 0.00 69 1015.1
20260506121104 33 360 2.0 5.0 0.00 0.00 0.00 69 1015.1
20260506121018 33 360 2.0 5.0 0.00 0.00 0.00 69 1015.1
20260506120918 33 360 2.0 5.0 0.00 0.00 0.00 69 1015.1
20260506120805 33 360 2.0 5.0 0.00 0.00 0.00 69 1015.0
20260506120704 33 360 2.0 5.0 0.00 0.00 0.00 69 1015.0
20260506120604 33 360 2.0 4.0 0.00 0.00 0.00 69 1015.0
20260506120519 33 360 2.0 4.0 0.00 0.00 0.00 69 1015.0
20260506120405 33 360 2.0 4.0 0.00 0.00 0.00 69 1015.0
20260506120319 33 360 2.0 4.0 0.00 0.00 0.00 69 1015.0
20260506120205 33 360 2.0 4.0 0.00 0.00 0.00 69 1015.0
20260506120119 33 360 2.0 4.0 0.00 0.00 0.00 69 1015.0
20260506120005 33 360 1.0 4.0 0.00 0.00 0.00 69 1015.0
20260506115905 33 360 1.0 4.0 0.00 0.00 0.00 69 1015.0
20260506115805 33 360 1.0 4.0 0.00 0.00 0.00 69 1014.9
20260506115718 33 360 1.0 4.0 0.00 0.00 0.00 69 1014.9
20260506115606 33 360 1.0 4.0 0.00 0.00 0.00 69 1014.9
20260506115504 33 360 1.0 4.0 0.00 0.00 0.00 69 1014.9
20260506115405 33 360 1.0 2.0 0.00 0.00 0.00 69 1014.9
20260506115307 33 360 1.0 2.0 0.00 0.00 0.00 69 1014.9
20260506115204 33 360 1.0 2.0 0.00 0.00 0.00 69 1014.8
20260506115104 34 360 1.0 5.0 0.00 0.00 0.00 69 1014.8
20260506115019 34 360 1.0 5.0 0.00 0.00 0.00 69 1014.8
20260506114904 34 360 2.0 5.0 0.00 0.00 0.00 69 1014.8
20260506114805 34 360 2.0 5.0 0.00 0.00 0.00 69 1014.8
20260506114705 34 360 2.0 5.0 0.00 0.00 0.00 69 1014.8
20260506114605 34 360 2.0 5.0 0.00 0.00 0.00 69 1014.8
20260506114518 34 360 2.0 5.0 0.00 0.00 0.00 68 1014.8
20260506114405 34 360 2.0 5.0 0.00 0.00 0.00 68 1014.9
20260506114305 34 360 2.0 5.0 0.00 0.00 0.00 68 1014.8
20260506114204 34 360 2.0 5.0 0.00 0.00 0.00 68 1014.8
20260506114105 34 360 2.0 5.0 0.00 0.00 0.00 68 1014.8
20260506114005 34 360 2.0 4.0 0.00 0.00 0.00 68 1014.7
20260506113905 34 360 2.0 4.0 0.00 0.00 0.00 68 1014.7
20260506113818 34 360 2.0 4.0 0.00 0.00 0.00 68 1014.6
20260506113704 34 360 2.0 4.0 0.00 0.00 0.00 68 1014.6
20260506113604 34 360 2.0 4.0 0.00 0.00 0.00 68 1014.7
20260506113519 34 360 2.0 3.0 0.00 0.00 0.00 68 1014.6
20260506113404 34 360 2.0 4.0 0.00 0.00 0.00 68 1014.6
20260506113304 34 360 2.0 5.0 0.00 0.00 0.00 68 1014.5
20260506113205 34 360 2.0 5.0 0.00 0.00 0.00 68 1014.5
20260506113105 34 360 2.0 5.0 0.00 0.00 0.00 68 1014.5
20260506113005 34 360 2.0 5.0 0.00 0.00 0.00 68 1014.6
20260506112904 34 360 3.0 5.0 0.00 0.00 0.00 68 1014.6
20260506112805 34 360 3.0 5.0 0.00 0.00 0.00 68 1014.6
20260506112704 34 360 3.0 5.0 0.00 0.00 0.00 68 1014.6
20260506112605 34 360 3.0 5.0 0.00 0.00 0.00 68 1014.6
20260506112504 34 360 3.0 5.0 0.00 0.00 0.00 68 1014.6
20260506112404 34 360 3.0 5.0 0.00 0.00 0.00 68 1014.6
20260506112306 34 360 2.0 5.0 0.00 0.00 0.00 68 1014.7
20260506112205 34 360 2.0 5.0 0.00 0.00 0.00 68 1014.6
20260506112104 34 360 2.0 5.0 0.00 0.00 0.00 68 1014.7
20260506112005 34 360 2.0 5.0 0.00 0.00 0.00 68 1014.8
20260506111904 34 360 2.0 5.0 0.00 0.00 0.00 69 1014.8
20260506111805 34 360 2.0 4.0 0.00 0.00 0.00 69 1014.7
20260506111705 34 360 1.0 4.0 0.00 0.00 0.00 69 1014.8
20260506111605 34 360 1.0 3.0 0.00 0.00 0.00 69 1014.8
20260506111505 34 360 1.0 3.0 0.00 0.00 0.00 69 1014.8
20260506111405 33 360 1.0 3.0 0.00 0.00 0.00 69 1014.8
20260506111318 34 360 1.0 3.0 0.00 0.00 0.00 69 1014.8
20260506111204 33 360 1.0 3.0 0.00 0.00 0.00 69 1014.8
20260506111105 33 360 1.0 3.0 0.00 0.00 0.00 69 1014.8
20260506111004 33 360 1.0 3.0 0.00 0.00 0.00 69 1014.7
20260506110919 33 360 1.0 3.0 0.00 0.00 0.00 69 1014.8
20260506110805 33 360 1.0 3.0 0.00 0.00 0.00 69 1014.8
20260506110705 33 360 0.0 3.0 0.00 0.00 0.00 69 1014.8
20260506110604 33 360 1.0 5.0 0.00 0.00 0.00 69 1014.8
20260506110504 33 360 1.0 5.0 0.00 0.00 0.00 69 1014.7
20260506110404 33 360 1.0 5.0 0.00 0.00 0.00 69 1014.8
20260506110305 33 360 1.0 5.0 0.00 0.00 0.00 69 1014.8
20260506110204 33 360 1.0 5.0 0.00 0.00 0.00 69 1014.7
20260506110119 33 360 1.0 5.0 0.00 0.00 0.00 69 1014.7
20260506110005 33 360 1.0 5.0 0.00 0.00 0.00 69 1014.8
20260506105904 33 360 1.0 5.0 0.00 0.00 0.00 69 1014.7
20260506105819 33 360 1.0 5.0 0.00 0.00 0.00 69 1014.8
20260506105718 33 360 2.0 5.0 0.00 0.00 0.00 69 1014.7
20260506105605 33 360 1.0 5.0 0.00 0.00 0.00 70 1014.6
20260506105504 33 360 1.0 3.0 0.00 0.00 0.00 70 1014.6
20260506105419 33 360 1.0 3.0 0.00 0.00 0.00 70 1014.6
20260506105305 33 360 1.0 3.0 0.00 0.00 0.00 70 1014.6
20260506105204 33 360 1.0 3.0 0.00 0.00 0.00 70 1014.6
20260506105104 33 360 1.0 3.0 0.00 0.00 0.00 70 1014.7
20260506105019 32 360 1.0 3.0 0.00 0.00 0.00 71 1014.6
20260506104920 32 360 1.0 3.0 0.00 0.00 0.00 71 1014.7
20260506104805 32 360 1.0 2.0 0.00 0.00 0.00 71 1014.7
20260506104704 32 360 1.0 2.0 0.00 0.00 0.00 71 1014.6
20260506104605 32 360 1.0 2.0 0.00 0.00 0.00 71 1014.6
20260506104505 32 360 1.0 2.0 0.00 0.00 0.00 71 1014.6
20260506104405 32 360 1.0 2.0 0.00 0.00 0.00 71 1014.5
20260506104319 32 360 1.0 2.0 0.00 0.00 0.00 71 1014.5
20260506104205 32 360 1.0 2.0 0.00 0.00 0.00 71 1014.5
20260506104105 32 360 1.0 2.0 0.00 0.00 0.00 72 1014.5
20260506104005 32 360 1.0 2.0 0.00 0.00 0.00 72 1014.5
20260506103904 32 360 1.0 2.0 0.00 0.00 0.00 72 1014.4
20260506103804 32 360 1.0 2.0 0.00 0.00 0.00 72 1014.4
20260506103719 32 360 1.0 2.0 0.00 0.00 0.00 72 1014.4
20260506103604 32 360 1.0 2.0 0.00 0.00 0.00 72 1014.3
20260506103518 32 360 1.0 2.0 0.00 0.00 0.00 72 1014.3
20260506103404 32 360 1.0 2.0 0.00 0.00 0.00 72 1014.3
20260506103304 32 360 0.0 2.0 0.00 0.00 0.00 72 1014.3
20260506103219 32 360 0.0 2.0 0.00 0.00 0.00 72 1014.3
20260506103104 32 360 0.0 2.0 0.00 0.00 0.00 72 1014.3
20260506103004 32 360 0.0 2.0 0.00 0.00 0.00 72 1014.2
20260506102919 32 360 0.0 2.0 0.00 0.00 0.00 72 1014.2
20260506102804 32 360 0.0 2.0 0.00 0.00 0.00 72 1014.3
20260506102705 32 360 0.0 2.0 0.00 0.00 0.00 72 1014.2
20260506102605 32 360 0.0 2.0 0.00 0.00 0.00 72 1014.2
20260506102505 32 360 0.0 2.0 0.00 0.00 0.00 72 1014.2
20260506102404 32 360 1.0 2.0 0.00 0.00 0.00 72 1014.2
20260506102306 32 360 1.0 3.0 0.00 0.00 0.00 72 1014.1
20260506102204 32 360 1.0 3.0 0.00 0.00 0.00 73 1014.2
20260506102118 32 360 1.0 3.0 0.00 0.00 0.00 73 1014.2
20260506102004 31 360 1.0 3.0 0.00 0.00 0.00 73 1014.1
20260506101904 31 360 1.0 3.0 0.00 0.00 0.00 73 1014.2
20260506101805 31 360 1.0 3.0 0.00 0.00 0.00 74 1014.1
20260506101705 31 360 1.0 3.0 0.00 0.00 0.00 74 1014.2
20260506101619 31 360 1.0 3.0 0.00 0.00 0.00 74 1014.2
20260506101506 31 360 1.0 3.0 0.00 0.00 0.00 74 1014.2
20260506101419 31 360 1.0 3.0 0.00 0.00 0.00 74 1014.2
20260506101319 31 360 1.0 3.0 0.00 0.00 0.00 75 1014.2
20260506101205 31 360 0.0 2.0 0.00 0.00 0.00 75 1014.2
20260506101104 31 360 1.0 2.0 0.00 0.00 0.00 75 1014.2
20260506101004 31 360 1.0 2.0 0.00 0.00 0.00 76 1014.2
20260506100905 31 360 1.0 2.0 0.00 0.00 0.00 76 1014.1
20260506100805 31 360 1.0 2.0 0.00 0.00 0.00 76 1014.2
20260506100704 30 360 0.0 2.0 0.00 0.00 0.00 76 1014.2
20260506100604 30 360 0.0 2.0 0.00 0.00 0.00 76 1014.2
20260506100504 30 360 0.0 2.0 0.00 0.00 0.00 76 1014.2
20260506100405 30 360 0.0 2.0 0.00 0.00 0.00 76 1014.2
20260506100304 30 360 0.0 2.0 0.00 0.00 0.00 77 1014.3
20260506100204 30 360 0.0 2.0 0.00 0.00 0.00 77 1014.2
20260506100104 30 360 0.0 2.0 0.00 0.00 0.00 77 1014.2
20260506100005 30 360 0.0 2.0 0.00 0.00 0.00 77 1014.3
20260506095918 30 360 0.0 2.0 0.00 0.00 0.00 77 1014.2
20260506095818 30 360 0.0 2.0 0.00 0.00 0.00 77 1014.3
20260506095718 30 360 0.0 2.0 0.00 0.00 0.00 77 1014.2
20260506095605 30 360 0.0 2.0 0.00 0.00 0.00 77 1014.2
20260506095519 30 0 0.0 0.0 0.00 0.00 0.00 77 1014.2
20260506095404 30 0 0.0 0.0 0.00 0.00 0.00 77 1014.2
20260506095306 30 0 0.0 0.0 0.00 0.00 0.00 77 1014.2
20260506095218 30 0 0.0 0.0 0.00 0.00 0.00 77 1014.2
20260506095104 30 0 0.0 0.0 0.00 0.00 0.00 77 1014.3
20260506095005 30 0 0.0 0.0 0.00 0.00 0.00 77 1014.2
20260506094904 30 0 0.0 0.0 0.00 0.00 0.00 77 1014.3
20260506094818 30 0 0.0 2.0 0.00 0.00 0.00 77 1014.3
20260506094704 30 0 0.0 2.0 0.00 0.00 0.00 77 1014.2
20260506094604 30 0 0.0 2.0 0.00 0.00 0.00 77 1014.2
20260506094504 30 360 0.0 2.0 0.00 0.00 0.00 77 1014.3
20260506094405 30 360 0.0 2.0 0.00 0.00 0.00 77 1014.2
20260506094304 30 360 0.0 2.0 0.00 0.00 0.00 77 1014.3
20260506094204 30 360 0.0 2.0 0.00 0.00 0.00 78 1014.3
20260506094104 30 360 0.0 2.0 0.00 0.00 0.00 78 1014.3
20260506094005 30 360 0.0 2.0 0.00 0.00 0.00 78 1014.3
20260506093904 30 360 0.0 2.0 0.00 0.00 0.00 78 1014.3
20260506093805 30 360 0.0 2.0 0.00 0.00 0.00 78 1014.2
20260506093704 30 360 0.0 2.0 0.00 0.00 0.00 78 1014.3
20260506093604 30 360 0.0 2.0 0.00 0.00 0.00 78 1014.3
20260506093504 30 360 0.0 2.0 0.00 0.00 0.00 78 1014.3
20260506093404 30 360 0.0 2.0 0.00 0.00 0.00 78 1014.3
20260506093305 30 360 0.0 2.0 0.00 0.00 0.00 78 1014.3
20260506093204 30 0 0.0 2.0 0.00 0.00 0.00 77 1014.3
20260506093118 30 0 0.0 2.0 0.00 0.00 0.00 77 1014.3
20260506093019 30 0 0.0 2.0 0.00 0.00 0.00 77 1014.4
20260506092904 30 0 0.0 2.0 0.00 0.00 0.00 77 1014.4
20260506092804 30 0 0.0 2.0 0.00 0.00 0.00 77 1014.4
20260506092704 30 0 0.0 2.0 0.00 0.00 0.00 77 1014.4
20260506092604 30 0 0.0 0.0 0.00 0.00 0.00 77 1014.4
20260506092505 30 0 0.0 0.0 0.00 0.00 0.00 77 1014.4
20260506092419 30 0 0.0 0.0 0.00 0.00 0.00 77 1014.4
20260506092319 30 0 0.0 0.0 0.00 0.00 0.00 77 1014.4
20260506092204 30 0 0.0 0.0 0.00 0.00 0.00 77 1014.3
20260506092104 30 0 0.0 0.0 0.00 0.00 0.00 77 1014.3
20260506092005 30 0 0.0 0.0 0.00 0.00 0.00 77 1014.4
20260506091918 30 0 0.0 0.0 0.00 0.00 0.00 77 1014.3
20260506091804 30 0 0.0 0.0 0.00 0.00 0.00 77 1014.3
20260506091704 30 0 0.0 0.0 0.00 0.00 0.00 76 1014.3
20260506091605 30 0 0.0 0.0 0.00 0.00 0.00 76 1014.3
20260506091505 30 0 0.0 0.0 0.00 0.00 0.00 77 1014.3
20260506091404 30 0 0.0 0.0 0.00 0.00 0.00 77 1014.3
20260506091305 30 0 0.0 1.0 0.00 0.00 0.00 76 1014.2
20260506091218 30 0 0.0 1.0 0.00 0.00 0.00 76 1014.3
20260506091104 30 0 0.0 1.0 0.00 0.00 0.00 76 1014.2
20260506091019 30 0 0.0 1.0 0.00 0.00 0.00 76 1014.2
20260506090905 30 0 0.0 1.0 0.00 0.00 0.00 76 1014.2
20260506090819 30 0 0.0 1.0 0.00 0.00 0.00 76 1014.2
20260506090704 30 0 0.0 1.0 0.00 0.00 0.00 76 1014.2
20260506090604 30 0 0.0 1.0 0.00 0.00 0.00 76 1014.2
20260506090504 30 0 0.0 1.0 0.00 0.00 0.00 76 1014.2
20260506090405 30 0 0.0 1.0 0.00 0.00 0.00 76 1014.2
20260506090318 30 0 0.0 1.0 0.00 0.00 0.00 75 1014.2
20260506090205 30 0 0.0 0.0 0.00 0.00 0.00 75 1014.2
20260506090105 30 0 0.0 0.0 0.00 0.00 0.00 75 1014.2
20260506090004 30 0 0.0 0.0 0.00 0.00 0.00 75 1014.1
20260506085904 30 0 0.0 0.0 0.00 0.00 0.00 75 1014.1
20260506085805 30 0 0.0 0.0 0.00 0.00 0.00 74 1014.1
20260506085704 30 0 0.0 0.0 0.00 0.00 0.00 74 1014.1
20260506085605 30 0 0.0 0.0 0.00 0.00 0.00 74 1014.1
20260506085505 31 0 0.0 0.0 0.00 0.00 0.00 74 1014.1
20260506085405 31 0 0.0 0.0 0.00 0.00 0.00 74 1014.1
20260506085306 31 0 0.0 0.0 0.00 0.00 0.00 74 1014.1
20260506085204 31 0 0.0 0.0 0.00 0.00 0.00 73 1014.1
20260506085104 31 0 0.0 0.0 0.00 0.00 0.00 73 1014.1
20260506085018 31 0 0.0 0.0 0.00 0.00 0.00 73 1014.1
20260506084919 31 0 0.0 0.0 0.00 0.00 0.00 73 1014.1
20260506084805 31 0 0.0 0.0 0.00 0.00 0.00 73 1014.1
20260506084705 31 0 0.0 0.0 0.00 0.00 0.00 73 1014.1
20260506084604 31 0 0.0 0.0 0.00 0.00 0.00 73 1014.1
20260506084505 31 0 0.0 0.0 0.00 0.00 0.00 73 1014.1
20260506084404 31 0 0.0 0.0 0.00 0.00 0.00 74 1014.1
20260506084305 31 0 0.0 0.0 0.00 0.00 0.00 74 1014.1
20260506084205 31 0 0.0 0.0 0.00 0.00 0.00 74 1014.1
20260506084120 31 0 0.0 0.0 0.00 0.00 0.00 74 1014.1
20260506084005 31 0 0.0 0.0 0.00 0.00 0.00 73 1014.1
20260506083904 31 0 0.0 0.0 0.00 0.00 0.00 73 1014.1
20260506083805 31 0 0.0 0.0 0.00 0.00 0.00 73 1014.1
20260506083705 31 0 0.0 0.0 0.00 0.00 0.00 73 1014.1
20260506083619 31 0 0.0 0.0 0.00 0.00 0.00 73 1014.1
20260506083504 31 0 0.0 0.0 0.00 0.00 0.00 73 1014.1
20260506083404 31 0 0.0 0.0 0.00 0.00 0.00 73 1014.2
20260506083305 31 0 0.0 0.0 0.00 0.00 0.00 73 1014.2
20260506083204 31 0 0.0 0.0 0.00 0.00 0.00 73 1014.2
20260506083105 31 0 0.0 0.0 0.00 0.00 0.00 73 1014.2
20260506083005 31 0 0.0 0.0 0.00 0.00 0.00 73 1014.2
20260506082904 31 0 0.0 0.0 0.00 0.00 0.00 73 1014.2
20260506082805 31 0 0.0 0.0 0.00 0.00 0.00 72 1014.2
20260506082705 31 0 0.0 0.0 0.00 0.00 0.00 72 1014.2
20260506082604 31 0 0.0 0.0 0.00 0.00 0.00 72 1014.2
20260506082504 31 0 0.0 0.0 0.00 0.00 0.00 72 1014.2
20260506082404 32 0 0.0 0.0 0.00 0.00 0.00 72 1014.2
20260506082305 32 0 0.0 0.0 0.00 0.00 0.00 72 1014.2
20260506082204 32 0 0.0 0.0 0.00 0.00 0.00 72 1014.2
20260506082119 32 0 0.0 0.0 0.00 0.00 0.00 72 1014.2
20260506082005 32 0 0.0 0.0 0.00 0.00 0.00 72 1014.2
20260506081905 32 0 0.0 0.0 0.00 0.00 0.00 72 1014.2
20260506081804 32 0 0.0 0.0 0.00 0.00 0.00 72 1014.2
20260506081704 32 0 0.0 2.0 0.00 0.00 0.00 71 1014.2
20260506081619 32 360 0.0 2.0 0.00 0.00 0.00 71 1014.3
20260506081506 32 360 0.0 2.0 0.00 0.00 0.00 71 1014.2
20260506081405 32 360 0.0 2.0 0.00 0.00 0.00 71 1014.2
20260506081305 32 360 0.0 2.0 0.00 0.00 0.00 71 1014.2
20260506081204 32 360 0.0 2.0 0.00 0.00 0.00 71 1014.2
20260506081104 32 360 0.0 2.0 0.00 0.00 0.00 71 1014.1
20260506081005 32 360 0.0 2.0 0.00 0.00 0.00 71 1014.1
20260506080904 32 360 0.0 2.0 0.00 0.00 0.00 71 1014.1
20260506080805 32 360 0.0 2.0 0.00 0.00 0.00 71 1014.1
20260506080705 32 360 0.0 2.0 0.00 0.00 0.00 71 1014.1
20260506080604 32 0 0.0 0.0 0.00 0.00 0.00 71 1014.1
20260506080504 32 0 0.0 0.0 0.00 0.00 0.00 71 1014.1
20260506080404 32 0 0.0 0.0 0.00 0.00 0.00 70 1014.1
20260506080304 32 0 0.0 0.0 0.00 0.00 0.00 70 1014.0
20260506080218 32 0 0.0 0.0 0.00 0.00 0.00 70 1014.1
20260506080105 32 0 0.0 0.0 0.00 0.00 0.00 70 1014.0
20260506073505 34 0 0.0 2.0 0.00 0.00 0.00 68 1013.8
20260506073405 34 0 0.0 2.0 0.00 0.00 0.00 68 1013.8
20260506073304 34 0 0.0 2.0 0.00 0.00 0.00 68 1013.8
20260506073204 34 0 0.0 2.0 0.00 0.00 0.00 68 1013.8
20260506073119 34 0 0.0 2.0 0.00 0.00 0.00 68 1013.8
20260506073004 34 0 0.0 2.0 0.00 0.00 0.00 68 1013.8
20260506072904 34 0 0.0 2.0 0.00 0.00 0.00 68 1013.8
20260506072819 34 0 0.0 2.0 0.00 0.00 0.00 68 1013.8
20260506072704 34 360 0.0 1.0 0.00 0.00 0.00 68 1013.8
20260506072605 34 360 0.0 2.0 0.00 0.00 0.00 68 1013.8
20260506072505 34 360 0.0 2.0 0.00 0.00 0.00 68 1013.8
20260506072404 34 360 0.0 2.0 0.00 0.00 0.00 68 1013.8
20260506072306 34 360 0.0 2.0 0.00 0.00 0.00 68 1013.9
20260506072204 34 360 0.0 2.0 0.00 0.00 0.00 68 1013.8
20260506072104 34 360 0.0 2.0 0.00 0.00 0.00 68 1013.8
20260506072004 34 360 0.0 2.0 0.00 0.00 0.00 68 1013.8
20260506071905 34 360 0.0 2.0 0.00 0.00 0.00 68 1013.8
20260506071804 34 360 0.0 2.0 0.00 0.00 0.00 68 1013.9
20260506071705 34 360 0.0 2.0 0.00 0.00 0.00 68 1013.8
20260506071604 34 360 0.0 2.0 0.00 0.00 0.00 68 1013.9
20260506071504 34 360 0.0 2.0 0.00 0.00 0.00 68 1013.9
20260506071418 34 360 0.0 2.0 0.00 0.00 0.00 68 1013.8
20260506071304 34 360 0.0 2.0 0.00 0.00 0.00 67 1013.9
20260506071219 34 360 0.0 2.0 0.00 0.00 0.00 67 1014.0
20260506071105 34 360 0.0 2.0 0.00 0.00 0.00 67 1013.9
20260506071004 34 360 0.0 2.0 0.00 0.00 0.00 67 1013.9
20260506070904 34 360 0.0 2.0 0.00 0.00 0.00 67 1013.9
20260506070804 34 360 0.0 2.0 0.00 0.00 0.00 67 1013.8
20260506070704 34 360 0.0 2.0 0.00 0.00 0.00 67 1013.9
20260506070604 34 360 0.0 2.0 0.00 0.00 0.00 66 1013.9
20260506070504 34 360 0.0 2.0 0.00 0.00 0.00 66 1013.9
20260506070404 34 360 0.0 2.0 0.00 0.00 0.00 66 1013.9
20260506070304 34 360 0.0 2.0 0.00 0.00 0.00 66 1013.9
20260506070204 34 360 0.0 2.0 0.00 0.00 0.00 66 1013.8
20260506070118 34 360 0.0 2.0 0.00 0.00 0.00 66 1013.9
20260506062505 36 360 1.0 2.0 0.00 0.00 0.00 64 1013.9
20260506062405 36 360 1.0 2.0 0.00 0.00 0.00 64 1013.9
20260506062306 36 360 1.0 2.0 0.00 0.00 0.00 64 1013.9
20260506062219 36 360 1.0 2.0 0.00 0.00 0.00 64 1013.9
20260506062104 36 360 1.0 2.0 0.00 0.00 0.00 64 1013.9
20260506062005 36 360 1.0 2.0 0.00 0.00 0.00 64 1013.9
20260506061904 36 360 1.0 2.0 0.00 0.00 0.00 63 1013.9
20260506061804 36 360 1.0 2.0 0.00 0.00 0.00 63 1013.8
20260506061705 36 360 0.0 2.0 0.00 0.00 0.00 63 1013.8
20260506061618 36 360 0.0 2.0 0.00 0.00 0.00 63 1013.9
20260506061504 36 360 0.0 2.0 0.00 0.00 0.00 63 1013.9
20260506061405 36 360 1.0 4.0 0.00 0.00 0.00 63 1013.9
20260506061304 36 360 1.0 4.0 0.00 0.00 0.00 63 1013.8
20260506061205 36 360 1.0 4.0 0.00 0.00 0.00 63 1013.9
20260506061104 36 360 1.0 4.0 0.00 0.00 0.00 63 1013.9
20260506061004 36 360 1.0 4.0 0.00 0.00 0.00 63 1013.9
20260506060918 36 360 1.0 4.0 0.00 0.00 0.00 63 1013.9
20260506060805 36 360 1.0 4.0 0.00 0.00 0.00 62 1014.0
20260506060718 36 360 1.0 4.0 0.00 0.00 0.00 62 1014.0
20260506060605 36 360 1.0 4.0 0.00 0.00 0.00 62 1013.9
20260506060519 36 360 1.0 4.0 0.00 0.00 0.00 62 1013.9
20260506060405 36 360 1.0 4.0 0.00 0.00 0.00 62 1013.9
20260506060305 36 360 0.0 3.0 0.00 0.00 0.00 61 1013.9
20260506060205 36 360 0.0 2.0 0.00 0.00 0.00 61 1013.9
20260506060118 36 360 0.0 2.0 0.00 0.00 0.00 61 1013.9
20260506051405 38 360 1.0 4.0 0.00 0.00 0.00 58 1013.4
20260506051304 38 360 2.0 4.0 0.00 0.00 0.00 58 1013.4
20260506051205 38 360 2.0 4.0 0.00 0.00 0.00 58 1013.3
20260506051104 38 360 2.0 4.0 0.00 0.00 0.00 58 1013.3
20260506051005 38 360 2.0 4.0 0.00 0.00 0.00 58 1013.3
20260506050904 38 360 2.0 4.0 0.00 0.00 0.00 58 1013.3
20260506050818 38 360 2.0 4.0 0.00 0.00 0.00 58 1013.3
20260506050705 38 360 2.0 3.0 0.00 0.00 0.00 58 1013.3
20260506050604 38 360 1.0 3.0 0.00 0.00 0.00 58 1013.2
20260506050505 38 360 1.0 3.0 0.00 0.00 0.00 57 1013.1
20260506050405 38 360 2.0 3.0 0.00 0.00 0.00 57 1013.2
20260506050305 38 360 1.0 3.0 0.00 0.00 0.00 57 1013.2
20260506050204 38 360 1.0 3.0 0.00 0.00 0.00 57 1013.2
20260506050104 38 360 1.0 2.0 0.00 0.00 0.00 57 1013.2
20260506045105 39 360 2.0 4.0 0.00 0.00 0.00 56 1013.0
20260506045005 39 360 3.0 4.0 0.00 0.00 0.00 56 1013.0
20260506044906 39 360 3.0 7.0 0.00 0.00 0.00 56 1013.1
20260506044804 39 360 3.0 7.0 0.00 0.00 0.00 56 1013.0
20260506044704 39 360 3.0 7.0 0.00 0.00 0.00 56 1013.0
20260506044608 39 360 3.0 7.0 0.00 0.00 0.00 56 1013.1
20260506044505 39 360 3.0 7.0 0.00 0.00 0.00 56 1013.0
20260506044419 39 360 3.0 7.0 0.00 0.00 0.00 56 1013.0
20260506044304 39 360 3.0 7.0 0.00 0.00 0.00 56 1013.1
20260506044205 39 360 3.0 7.0 0.00 0.00 0.00 56 1013.0
20260506044105 39 360 3.0 7.0 0.00 0.00 0.00 56 1013.0
20260506044004 39 360 3.0 7.0 0.00 0.00 0.00 56 1013.0
20260506043918 39 360 2.0 7.0 0.00 0.00 0.00 56 1013.0
20260506043804 39 360 2.0 5.0 0.00 0.00 0.00 56 1013.1
20260506043705 39 360 2.0 5.0 0.00 0.00 0.00 56 1013.0
20260506043605 39 360 1.0 5.0 0.00 0.00 0.00 56 1013.1
20260506043505 39 360 1.0 3.0 0.00 0.00 0.00 55 1013.1
20260506043404 39 360 1.0 3.0 0.00 0.00 0.00 55 1013.1
20260506043304 39 360 1.0 5.0 0.00 0.00 0.00 55 1013.0
20260506043204 39 360 1.0 5.0 0.00 0.00 0.00 55 1013.0
20260506043118 39 360 1.0 5.0 0.00 0.00 0.00 55 1013.0
20260506043005 39 360 1.0 5.0 0.00 0.00 0.00 55 1013.0
20260506042904 39 360 2.0 5.0 0.00 0.00 0.00 55 1013.0
20260506042804 39 360 2.0 5.0 0.00 0.00 0.00 55 1013.0
20260506042704 39 360 2.0 5.0 0.00 0.00 0.00 54 1013.0
20260506042618 39 360 2.0 5.0 0.00 0.00 0.00 54 1013.0
20260506042504 40 360 2.0 5.0 0.00 0.00 0.00 54 1013.0
20260506042404 40 360 3.0 5.0 0.00 0.00 0.00 54 1013.0
20260506042305 40 360 2.0 5.0 0.00 0.00 0.00 54 1013.0
20260506042204 40 360 2.0 5.0 0.00 0.00 0.00 54 1013.0
20260506042118 40 360 2.0 5.0 0.00 0.00 0.00 54 1012.9
20260506042004 40 360 3.0 5.0 0.00 0.00 0.00 53 1013.0
20260506041904 40 360 2.0 5.0 0.00 0.00 0.00 53 1013.0
20260506041818 40 360 2.0 5.0 0.00 0.00 0.00 53 1013.0
20260506041705 40 360 2.0 5.0 0.00 0.00 0.00 53 1013.0
20260506041604 40 360 2.0 4.0 0.00 0.00 0.00 53 1012.9
20260506041504 40 360 2.0 4.0 0.00 0.00 0.00 53 1012.9
20260506041404 40 360 3.0 6.0 0.00 0.00 0.00 53 1012.9
20260506041304 40 360 3.0 6.0 0.00 0.00 0.00 53 1012.9
20260506041204 40 360 2.0 6.0 0.00 0.00 0.00 53 1012.9
20260506041118 40 360 3.0 6.0 0.00 0.00 0.00 53 1012.9
20260506041004 40 360 3.0 6.0 0.00 0.00 0.00 52 1012.9
20260506040905 40 360 3.0 6.0 0.00 0.00 0.00 52 1013.0
20260506040804 40 360 3.0 6.0 0.00 0.00 0.00 52 1013.0
20260506040718 40 360 3.0 6.0 0.00 0.00 0.00 53 1013.0
20260506040604 40 360 3.0 6.0 0.00 0.00 0.00 52 1013.0
20260506040505 40 360 3.0 6.0 0.00 0.00 0.00 52 1013.0
20260506040404 40 360 2.0 6.0 0.00 0.00 0.00 52 1012.9
20260506040304 40 360 3.0 11.0 0.00 0.00 0.00 52 1012.9
20260506040204 40 360 3.0 11.0 0.00 0.00 0.00 52 1012.9
20260506040104 40 360 3.0 11.0 0.00 0.00 0.00 52 1012.9
20260506040004 40 360 3.0 11.0 0.00 0.00 0.00 52 1012.9
20260506035904 40 360 3.0 11.0 0.00 0.00 0.00 52 1012.9
20260506035804 40 360 3.0 11.0 0.00 0.00 0.00 51 1012.9
20260506035704 40 360 4.0 11.0 0.00 0.00 0.00 51 1012.9
20260506035604 40 360 4.0 11.0 0.00 0.00 0.00 52 1012.9
20260506035504 40 360 4.0 11.0 0.00 0.00 0.00 52 1012.9
20260506035404 40 360 4.0 11.0 0.00 0.00 0.00 52 1012.9
20260506035306 40 360 3.0 11.0 0.00 0.00 0.00 52 1012.9
20260506035205 40 360 3.0 9.0 0.00 0.00 0.00 51 1012.9
20260506035105 40 360 3.0 9.0 0.00 0.00 0.00 52 1012.9
20260506035004 41 360 3.0 9.0 0.00 0.00 0.00 51 1012.9
20260506034904 41 360 3.0 9.0 0.00 0.00 0.00 51 1012.8
20260506034804 41 360 3.0 9.0 0.00 0.00 0.00 51 1012.9
20260506034718 41 360 3.0 9.0 0.00 0.00 0.00 52 1012.9
20260506034605 41 360 3.0 6.0 0.00 0.00 0.00 52 1012.9
20260506034504 41 360 3.0 6.0 0.00 0.00 0.00 52 1012.8
20260506034404 41 360 3.0 6.0 0.00 0.00 0.00 51 1012.9
20260506034304 41 360 3.0 6.0 0.00 0.00 0.00 52 1012.8
20260506034204 41 360 3.0 6.0 0.00 0.00 0.00 51 1012.8
20260506034104 41 360 3.0 6.0 0.00 0.00 0.00 52 1012.9
20260506034018 41 360 3.0 6.0 0.00 0.00 0.00 51 1012.8
20260506033904 41 360 2.0 6.0 0.00 0.00 0.00 51 1012.8
20260506033805 41 360 2.0 5.0 0.00 0.00 0.00 51 1012.7
20260506033704 41 360 2.0 5.0 0.00 0.00 0.00 51 1012.7
20260506033604 41 360 2.0 5.0 0.00 0.00 0.00 51 1012.7
20260506033504 41 360 3.0 8.0 0.00 0.00 0.00 51 1012.7
20260506033404 41 360 3.0 8.0 0.00 0.00 0.00 51 1012.6
20260506033304 41 360 4.0 8.0 0.00 0.00 0.00 51 1012.7
20260506033205 41 360 4.0 8.0 0.00 0.00 0.00 51 1012.7
20260506033104 41 360 3.0 8.0 0.00 0.00 0.00 51 1012.7
20260506033018 41 360 4.0 8.0 0.00 0.00 0.00 50 1012.7
20260506032904 41 360 4.0 8.0 0.00 0.00 0.00 51 1012.7
20260506032804 41 360 4.0 8.0 0.00 0.00 0.00 50 1012.8
20260506032718 41 360 4.0 8.0 0.00 0.00 0.00 50 1012.8
20260506032619 41 360 4.0 8.0 0.00 0.00 0.00 50 1012.8
20260506032504 41 360 3.0 8.0 0.00 0.00 0.00 50 1012.8
20260506032418 41 360 3.0 6.0 0.00 0.00 0.00 50 1012.8
20260506032306 41 360 3.0 5.0 0.00 0.00 0.00 50 1012.8
20260506032218 41 360 4.0 12.0 0.00 0.00 0.00 50 1012.8
20260506032105 41 360 4.0 12.0 0.00 0.00 0.00 50 1012.8
20260506032018 41 360 4.0 12.0 0.00 0.00 0.00 50 1012.8
20260506031905 42 360 4.0 12.0 0.00 0.00 0.00 50 1012.7
20260506031805 42 360 5.0 12.0 0.00 0.00 0.00 50 1012.7
20260506031718 42 360 5.0 12.0 0.00 0.00 0.00 50 1012.7
20260506031604 42 360 5.0 12.0 0.00 0.00 0.00 50 1012.7
20260506031504 42 360 5.0 12.0 0.00 0.00 0.00 50 1012.7
20260506031405 42 360 5.0 12.0 0.00 0.00 0.00 50 1012.7
20260506031318 42 360 5.0 12.0 0.00 0.00 0.00 50 1012.7
20260506031205 42 360 5.0 12.0 0.00 0.00 0.00 51 1012.7
20260506031104 42 360 4.0 9.0 0.00 0.00 0.00 51 1012.7
20260506031004 42 360 4.0 9.0 0.00 0.00 0.00 50 1012.7
20260506030919 42 360 4.0 9.0 0.00 0.00 0.00 50 1012.7
20260506030805 42 360 4.0 9.0 0.00 0.00 0.00 50 1012.7
20260506030705 42 360 3.0 9.0 0.00 0.00 0.00 50 1012.7
20260506030604 42 360 4.0 9.0 0.00 0.00 0.00 50 1012.6
20260506030504 42 360 4.0 9.0 0.00 0.00 0.00 50 1012.7
20260506030405 42 360 5.0 17.0 0.00 0.00 0.00 50 1012.6
20260506030304 42 360 6.0 17.0 0.00 0.00 0.00 50 1012.6
20260506030204 42 360 5.0 17.0 0.00 0.00 0.00 50 1012.6
20260506030104 42 360 5.0 17.0 0.00 0.00 0.00 50 1012.5
20260506030005 42 360 6.0 17.0 0.00 0.00 0.00 50 1012.5
20260506025919 42 360 7.0 17.0 0.00 0.00 0.00 50 1012.5
20260506025805 42 360 7.0 17.0 0.00 0.00 0.00 50 1012.5
20260506025718 42 360 7.0 17.0 0.00 0.00 0.00 50 1012.5
20260506025604 42 360 7.0 17.0 0.00 0.00 0.00 50 1012.4
20260506025504 42 360 7.0 17.0 0.00 0.00 0.00 50 1012.5
20260506025419 42 360 5.0 17.0 0.00 0.00 0.00 50 1012.5
20260506025306 42 360 5.0 14.0 0.00 0.00 0.00 50 1012.4
20260506025205 42 360 5.0 14.0 0.00 0.00 0.00 50 1012.4
20260506025104 42 360 5.0 14.0 0.00 0.00 0.00 50 1012.3
20260506025005 42 360 4.0 14.0 0.00 0.00 0.00 50 1012.4
20260506024904 42 360 3.0 13.0 0.00 0.00 0.00 50 1012.4
20260506024804 42 360 4.0 12.0 0.00 0.00 0.00 50 1012.4
20260506024704 42 360 4.0 12.0 0.00 0.00 0.00 50 1012.4
20260506024604 42 360 4.0 12.0 0.00 0.00 0.00 49 1012.3
20260506024504 42 360 5.0 12.0 0.00 0.00 0.00 50 1012.3
20260506024405 42 360 5.0 12.0 0.00 0.00 0.00 50 1012.3
20260506024304 42 360 5.0 12.0 0.00 0.00 0.00 49 1012.3
20260506024204 42 360 5.0 12.0 0.00 0.00 0.00 49 1012.3
20260506024105 43 360 4.0 12.0 0.00 0.00 0.00 49 1012.3
20260506024004 43 360 4.0 12.0 0.00 0.00 0.00 49 1012.3
20260506023904 43 360 5.0 12.0 0.00 0.00 0.00 49 1012.3
20260506023804 43 360 5.0 12.0 0.00 0.00 0.00 49 1012.2
20260506023718 43 360 5.0 12.0 0.00 0.00 0.00 49 1012.2
20260506023605 43 360 5.0 12.0 0.00 0.00 0.00 49 1012.2
20260506023504 43 360 4.0 12.0 0.00 0.00 0.00 49 1012.2
20260506023404 43 360 4.0 11.0 0.00 0.00 0.00 49 1012.2
20260506023304 43 360 4.0 11.0 0.00 0.00 0.00 49 1012.1
20260506023204 43 360 4.0 11.0 0.00 0.00 0.00 49 1012.2
20260506023119 43 360 4.0 11.0 0.00 0.00 0.00 49 1012.1
20260506023004 43 360 4.0 11.0 0.00 0.00 0.00 48 1012.1
20260506022919 43 360 4.0 11.0 0.00 0.00 0.00 48 1012.1
20260506022804 43 360 4.0 10.0 0.00 0.00 0.00 48 1012.0
20260506022705 43 360 4.0 10.0 0.00 0.00 0.00 48 1012.1
20260506022605 43 360 4.0 7.0 0.00 0.00 0.00 48 1012.1
20260506022504 43 360 4.0 7.0 0.00 0.00 0.00 48 1012.0
20260506022419 43 360 3.0 7.0 0.00 0.00 0.00 48 1012.0
20260506022306 43 360 3.0 6.0 0.00 0.00 0.00 48 1012.0
20260506022204 43 360 5.0 10.0 0.00 0.00 0.00 48 1011.9
20260506022104 43 360 5.0 10.0 0.00 0.00 0.00 48 1011.9
20260506022018 44 360 5.0 10.0 0.00 0.00 0.00 48 1011.9
20260506021904 44 360 5.0 10.0 0.00 0.00 0.00 47 1011.9
20260506021804 44 360 5.0 10.0 0.00 0.00 0.00 47 1011.9
20260506021705 44 360 4.0 10.0 0.00 0.00 0.00 47 1011.8
20260506021604 44 360 4.0 10.0 0.00 0.00 0.00 47 1011.8
20260506021504 44 360 4.0 10.0 0.00 0.00 0.00 47 1011.8
20260506021404 44 360 4.0 10.0 0.00 0.00 0.00 47 1011.8
20260506021305 44 360 4.0 10.0 0.00 0.00 0.00 47 1011.8
20260506021204 44 360 4.0 10.0 0.00 0.00 0.00 47 1011.7
20260506021104 44 360 5.0 12.0 0.00 0.00 0.00 47 1011.7
20260506021004 44 360 4.0 12.0 0.00 0.00 0.00 47 1011.6
20260506020905 44 360 4.0 12.0 0.00 0.00 0.00 47 1011.5
20260506020818 44 360 4.0 12.0 0.00 0.00 0.00 47 1011.6
20260506020704 44 360 4.0 12.0 0.00 0.00 0.00 47 1011.5
20260506020618 44 360 5.0 12.0 0.00 0.00 0.00 47 1011.5
20260506020504 44 360 4.0 12.0 0.00 0.00 0.00 47 1011.5
20260506020404 44 360 5.0 12.0 0.00 0.00 0.00 46 1011.5
20260506020304 44 360 5.0 12.0 0.00 0.00 0.00 46 1011.5
20260506020204 44 360 5.0 12.0 0.00 0.00 0.00 46 1011.5
20260506020104 44 360 4.0 12.0 0.00 0.00 0.00 46 1011.4
20260506020018 44 360 6.0 14.0 0.00 0.00 0.00 46 1011.5
20260506015904 44 360 6.0 14.0 0.00 0.00 0.00 46 1011.4
20260506015818 44 360 6.0 14.0 0.00 0.00 0.00 46 1011.4
20260506015705 44 360 6.0 14.0 0.00 0.00 0.00 46 1011.4
20260506015605 44 360 6.0 14.0 0.00 0.00 0.00 46 1011.4
20260506015504 44 360 6.0 14.0 0.00 0.00 0.00 46 1011.3
20260506015404 44 360 6.0 14.0 0.00 0.00 0.00 46 1011.4
20260506015318 44 360 6.0 14.0 0.00 0.00 0.00 46 1011.4
20260506015204 44 360 6.0 14.0 0.00 0.00 0.00 46 1011.4
20260506015105 44 360 6.0 14.0 0.00 0.00 0.00 46 1011.4
20260506015004 44 360 5.0 14.0 0.00 0.00 0.00 46 1011.4
20260506014904 45 360 5.0 10.0 0.00 0.00 0.00 46 1011.4
20260506014805 45 360 5.0 10.0 0.00 0.00 0.00 46 1011.4
20260506014704 45 360 5.0 10.0 0.00 0.00 0.00 46 1011.4
20260506014604 45 360 4.0 10.0 0.00 0.00 0.00 46 1011.4
20260506014504 45 360 4.0 10.0 0.00 0.00 0.00 46 1011.4
20260506014404 45 360 5.0 10.0 0.00 0.00 0.00 45 1011.4
20260506014319 45 360 5.0 10.0 0.00 0.00 0.00 45 1011.3
20260506014204 45 360 5.0 10.0 0.00 0.00 0.00 45 1011.3
20260506014104 45 360 6.0 10.0 0.00 0.00 0.00 45 1011.3
20260506014005 45 360 6.0 10.0 0.00 0.00 0.00 45 1011.2
20260506013904 45 360 6.0 10.0 0.00 0.00 0.00 45 1011.2
20260506013805 45 360 6.0 10.0 0.00 0.00 0.00 45 1011.2
20260506013705 45 360 6.0 10.0 0.00 0.00 0.00 45 1011.1
20260506013604 45 360 6.0 10.0 0.00 0.00 0.00 45 1011.2
20260506013505 45 360 6.0 10.0 0.00 0.00 0.00 45 1011.1
20260506013404 45 360 6.0 10.0 0.00 0.00 0.00 45 1011.1
20260506013305 45 360 7.0 17.0 0.00 0.00 0.00 45 1011.0
20260506013204 45 360 7.0 17.0 0.00 0.00 0.00 45 1011.0
20260506013104 45 360 7.0 17.0 0.00 0.00 0.00 45 1011.1
20260506013004 45 360 7.0 17.0 0.00 0.00 0.00 45 1011.1
20260506012918 45 360 7.0 17.0 0.00 0.00 0.00 45 1011.1
20260506012805 45 360 7.0 17.0 0.00 0.00 0.00 45 1011.1
20260506012704 45 360 7.0 17.0 0.00 0.00 0.00 45 1011.1
20260506012604 46 360 7.0 17.0 0.00 0.00 0.00 44 1011.0
20260506012504 46 360 7.0 17.0 0.00 0.00 0.00 44 1011.0
20260506012404 46 360 7.0 17.0 0.00 0.00 0.00 44 1011.0
20260506012308 46 360 6.0 17.0 0.00 0.00 0.00 44 1011.0
20260506012204 46 360 6.0 14.0 0.00 0.00 0.00 44 1011.0
20260506012118 46 360 6.0 14.0 0.00 0.00 0.00 44 1011.0
20260506012004 46 360 5.0 13.0 0.00 0.00 0.00 44 1011.0
20260506011904 46 360 4.0 13.0 0.00 0.00 0.00 45 1011.0
20260506011804 46 360 4.0 10.0 0.00 0.00 0.00 45 1011.0
20260506011704 46 360 4.0 10.0 0.00 0.00 0.00 45 1011.0
20260506011605 46 360 4.0 10.0 0.00 0.00 0.00 45 1011.0
20260506011505 46 360 4.0 10.0 0.00 0.00 0.00 44 1011.0
20260506011404 46 360 4.0 10.0 0.00 0.00 0.00 44 1010.9
20260506011304 46 360 4.0 10.0 0.00 0.00 0.00 44 1010.9
20260506011204 46 360 4.0 10.0 0.00 0.00 0.00 44 1010.9
20260506011104 46 360 4.0 10.0 0.00 0.00 0.00 44 1011.0
20260506011004 46 360 4.0 10.0 0.00 0.00 0.00 44 1010.9
20260506010904 46 360 3.0 10.0 0.00 0.00 0.00 44 1010.9
20260506010818 46 360 3.0 10.0 0.00 0.00 0.00 44 1010.9
20260506010704 46 360 3.0 10.0 0.00 0.00 0.00 44 1011.0
20260506010604 46 360 3.0 10.0 0.00 0.00 0.00 44 1010.9
20260506010504 46 360 3.0 10.0 0.00 0.00 0.00 44 1010.9
20260506010404 46 360 3.0 10.0 0.00 0.00 0.00 44 1010.9
20260506010318 46 360 2.0 7.0 0.00 0.00 0.00 44 1010.8
20260506010204 46 360 3.0 10.0 0.00 0.00 0.00 44 1010.8
20260506010105 46 360 3.0 10.0 0.00 0.00 0.00 44 1010.8
20260506010004 46 360 4.0 10.0 0.00 0.00 0.00 44 1010.8
20260506005918 46 360 4.0 10.0 0.00 0.00 0.00 44 1010.8
20260506005818 46 360 4.0 10.0 0.00 0.00 0.00 44 1010.8
20260506005704 46 360 4.0 10.0 0.00 0.00 0.00 44 1010.8
20260506005605 46 360 4.0 10.0 0.00 0.00 0.00 44 1010.7
20260506005504 46 360 4.0 10.0 0.00 0.00 0.00 44 1010.7
20260506005404 46 360 4.0 10.0 0.00 0.00 0.00 44 1010.7
20260506005318 46 360 5.0 10.0 0.00 0.00 0.00 44 1010.7
20260506005205 46 360 5.0 10.0 0.00 0.00 0.00 43 1010.7
20260506005104 46 360 5.0 9.0 0.00 0.00 0.00 43 1010.7
20260506005005 46 360 4.0 7.0 0.00 0.00 0.00 43 1010.7
20260506004904 46 360 4.0 6.0 0.00 0.00 0.00 43 1010.7
20260506004805 46 360 5.0 14.0 0.00 0.00 0.00 43 1010.7
20260506004705 47 360 5.0 14.0 0.00 0.00 0.00 43 1010.7
20260506004618 47 360 5.0 14.0 0.00 0.00 0.00 43 1010.7
20260506004505 47 360 5.0 14.0 0.00 0.00 0.00 43 1010.8
20260506004405 47 360 6.0 14.0 0.00 0.00 0.00 42 1010.7
20260506004305 47 360 6.0 14.0 0.00 0.00 0.00 42 1010.7
20260506004205 47 360 6.0 14.0 0.00 0.00 0.00 42 1010.6
20260506004118 47 360 6.0 14.0 0.00 0.00 0.00 42 1010.7
20260506004004 47 360 6.0 14.0 0.00 0.00 0.00 42 1010.7
20260506003905 47 360 6.0 14.0 0.00 0.00 0.00 42 1010.7
20260506003804 47 360 6.0 14.0 0.00 0.00 0.00 42 1010.7
20260506003704 47 360 6.0 12.0 0.00 0.00 0.00 42 1010.7
20260506003604 47 360 6.0 12.0 0.00 0.00 0.00 42 1010.7
20260506003504 47 360 6.0 12.0 0.00 0.00 0.00 42 1010.7
20260506003404 47 360 5.0 12.0 0.00 0.00 0.00 42 1010.6
20260506003305 47 360 5.0 12.0 0.00 0.00 0.00 42 1010.7
20260506003204 47 360 4.0 12.0 0.00 0.00 0.00 42 1010.6
20260506003105 47 360 4.0 9.0 0.00 0.00 0.00 42 1010.6
20260506003019 47 360 4.0 9.0 0.00 0.00 0.00 42 1010.6
20260506002904 47 360 4.0 9.0 0.00 0.00 0.00 42 1010.5
20260506002804 47 360 3.0 9.0 0.00 0.00 0.00 42 1010.6
20260506002704 47 360 3.0 9.0 0.00 0.00 0.00 42 1010.5
20260506002604 47 360 3.0 9.0 0.00 0.00 0.00 42 1010.6
20260506002504 47 360 4.0 11.0 0.00 0.00 0.00 42 1010.6
20260506002404 47 360 4.0 11.0 0.00 0.00 0.00 41 1010.5
20260506002306 47 360 5.0 11.0 0.00 0.00 0.00 41 1010.5
20260506002205 48 360 5.0 11.0 0.00 0.00 0.00 41 1010.5
20260506002104 48 360 5.0 11.0 0.00 0.00 0.00 41 1010.5
20260506002004 48 360 5.0 11.0 0.00 0.00 0.00 41 1010.5
20260506001918 48 360 6.0 11.0 0.00 0.00 0.00 41 1010.5
20260506001805 48 360 6.0 11.0 0.00 0.00 0.00 41 1010.5
20260506001718 48 360 6.0 11.0 0.00 0.00 0.00 41 1010.5
20260506001618 48 360 5.0 11.0 0.00 0.00 0.00 41 1010.5
20260506001505 48 360 5.0 11.0 0.00 0.00 0.00 41 1010.5
20260506001418 47 360 5.0 11.0 0.00 0.00 0.00 41 1010.5
20260506001304 47 360 5.0 11.0 0.00 0.00 0.00 42 1010.5
20260506001204 47 360 5.0 10.0 0.00 0.00 0.00 41 1010.5
20260506001118 47 360 5.0 10.0 0.00 0.00 0.00 41 1010.4
20260506001005 47 360 5.0 10.0 0.00 0.00 0.00 41 1010.5
20260506000904 47 360 5.0 10.0 0.00 0.00 0.00 41 1010.5
20260506000805 47 360 6.0 12.0 0.00 0.00 0.00 41 1010.5
20260506000704 48 360 6.0 13.0 0.00 0.00 0.00 40 1010.5
20260506000604 47 360 7.0 13.0 0.00 0.00 0.00 40 1010.5
20260506000504 47 360 7.0 13.0 0.00 0.00 0.00 40 1010.5
20260506000404 47 360 7.0 13.0 0.00 0.00 0.00 40 1010.5
20260506000305 47 360 7.0 13.0 0.00 0.00 0.00 40 1010.5
20260506000205 47 360 7.0 13.0 0.00 0.00 0.00 40 1010.4
20260506000119 47 360 7.0 13.0 0.00 0.00 0.00 40 1010.5
20260506000004 47 360 7.0 13.0 0.00 0.00 0.00 40 1010.5
20260505235904 47 360 7.0 13.0 0.00 0.00 0.00 40 1010.5
20260505235818 47 360 6.0 13.0 0.00 0.00 0.00 40 1010.5
20260505235718 47 360 5.0 13.0 0.00 0.00 0.00 40 1010.5
20260505235618 48 360 4.0 11.0 0.00 0.00 0.00 40 1010.4
20260505235518 48 360 5.0 13.0 0.00 0.00 0.00 40 1010.5
20260505235404 47 360 5.0 13.0 0.00 0.00 0.00 40 1010.5
20260505235305 48 360 5.0 13.0 0.00 0.00 0.00 40 1010.4
20260505235204 47 360 5.0 13.0 0.00 0.00 0.00 40 1010.4
20260505235105 48 360 4.0 13.0 0.00 0.00 0.00 40 1010.4
20260505235004 48 360 4.0 13.0 0.00 0.00 0.00 40 1010.4
20260505234904 47 360 4.0 13.0 0.00 0.00 0.00 40 1010.4
20260505234818 48 360 4.0 13.0 0.00 0.00 0.00 40 1010.4
20260505234704 48 360 5.0 13.0 0.00 0.00 0.00 40 1010.4
20260505234604 48 360 5.0 13.0 0.00 0.00 0.00 40 1010.4
20260505234505 48 360 4.0 13.0 0.00 0.00 0.00 40 1010.4
20260505234404 48 360 5.0 11.0 0.00 0.00 0.00 41 1010.4
20260505234304 47 360 5.0 11.0 0.00 0.00 0.00 41 1010.4
20260505234204 48 360 5.0 11.0 0.00 0.00 0.00 41 1010.4
20260505234118 48 360 5.0 11.0 0.00 0.00 0.00 40 1010.4
20260505234018 48 360 6.0 11.0 0.00 0.00 0.00 40 1010.3
20260505233904 48 360 6.0 11.0 0.00 0.00 0.00 40 1010.4
20260505233804 48 360 6.0 11.0 0.00 0.00 0.00 40 1010.4
20260505233704 48 360 5.0 10.0 0.00 0.00 0.00 40 1010.4
20260505233604 48 360 6.0 14.0 0.00 0.00 0.00 40 1010.4
20260505233504 48 360 5.0 14.0 0.00 0.00 0.00 40 1010.4
20260505233404 48 360 6.0 14.0 0.00 0.00 0.00 40 1010.4
20260505233318 48 360 6.0 14.0 0.00 0.00 0.00 40 1010.4
20260505233204 48 360 6.0 14.0 0.00 0.00 0.00 40 1010.4
20260505233105 48 360 6.0 14.0 0.00 0.00 0.00 40 1010.4
20260505233005 48 360 7.0 14.0 0.00 0.00 0.00 40 1010.3
20260505232904 48 360 7.0 14.0 0.00 0.00 0.00 40 1010.3
20260505232804 48 360 6.0 14.0 0.00 0.00 0.00 40 1010.3
20260505232704 48 360 7.0 14.0 0.00 0.00 0.00 40 1010.3
20260505232604 48 360 6.0 14.0 0.00 0.00 0.00 39 1010.3
20260505232505 48 360 7.0 15.0 0.00 0.00 0.00 39 1010.4
20260505232404 48 360 6.0 15.0 0.00 0.00 0.00 39 1010.4
20260505232305 48 360 6.0 15.0 0.00 0.00 0.00 39 1010.4
20260505232204 48 360 6.0 15.0 0.00 0.00 0.00 39 1010.3
20260505232104 48 360 6.0 15.0 0.00 0.00 0.00 39 1010.3
20260505232004 48 360 5.0 15.0 0.00 0.00 0.00 39 1010.3
20260505231904 48 360 5.0 15.0 0.00 0.00 0.00 38 1010.3
20260505231804 49 360 5.0 15.0 0.00 0.00 0.00 38 1010.3
20260505231705 49 360 5.0 15.0 0.00 0.00 0.00 39 1010.3
20260505231604 48 360 5.0 15.0 0.00 0.00 0.00 39 1010.3
20260505231504 49 360 4.0 15.0 0.00 0.00 0.00 39 1010.2
20260505231404 49 360 4.0 10.0 0.00 0.00 0.00 39 1010.3
20260505231304 49 360 4.0 10.0 0.00 0.00 0.00 39 1010.3
20260505231204 49 360 4.0 9.0 0.00 0.00 0.00 39 1010.2
20260505231104 49 360 6.0 15.0 0.00 0.00 0.00 39 1010.2
20260505231005 49 360 6.0 15.0 0.00 0.00 0.00 39 1010.2
20260505230904 48 360 6.0 15.0 0.00 0.00 0.00 39 1010.2
20260505230804 48 360 6.0 15.0 0.00 0.00 0.00 39 1010.2
20260505230704 49 360 6.0 15.0 0.00 0.00 0.00 38 1010.1
20260505230618 48 360 6.0 15.0 0.00 0.00 0.00 38 1010.1
20260505230518 49 360 6.0 15.0 0.00 0.00 0.00 39 1010.2
20260505230418 48 360 6.0 15.0 0.00 0.00 0.00 39 1010.2
20260505230304 48 360 6.0 15.0 0.00 0.00 0.00 39 1010.1
20260505230205 48 360 6.0 15.0 0.00 0.00 0.00 38 1010.1
20260505230104 48 360 5.0 15.0 0.00 0.00 0.00 39 1010.1
20260505230005 48 360 6.0 14.0 0.00 0.00 0.00 39 1010.1
20260505225906 48 360 6.0 14.0 0.00 0.00 0.00 39 1010.1
20260505225804 48 360 6.0 14.0 0.00 0.00 0.00 39 1010.2
20260505225705 48 360 6.0 14.0 0.00 0.00 0.00 39 1010.2
20260505225604 48 360 6.0 14.0 0.00 0.00 0.00 40 1010.2
20260505225519 48 360 7.0 14.0 0.00 0.00 0.00 39 1010.3
20260505225418 48 360 7.0 14.0 0.00 0.00 0.00 39 1010.1
20260505225306 48 360 7.0 14.0 0.00 0.00 0.00 39 1010.2
20260505225204 48 360 7.0 14.0 0.00 0.00 0.00 39 1010.1
20260505225118 48 360 7.0 14.0 0.00 0.00 0.00 38 1010.2
20260505225005 48 360 6.0 14.0 0.00 0.00 0.00 38 1010.2
20260505224904 48 360 6.0 14.0 0.00 0.00 0.00 38 1010.2
20260505224805 48 360 6.0 14.0 0.00 0.00 0.00 39 1010.2
20260505224704 48 360 7.0 18.0 0.00 0.00 0.00 38 1010.2
20260505224605 49 360 8.0 18.0 0.00 0.00 0.00 38 1010.1
20260505224505 49 360 7.0 18.0 0.00 0.00 0.00 38 1010.1
20260505224404 49 360 7.0 18.0 0.00 0.00 0.00 39 1010.1
20260505224304 49 360 7.0 18.0 0.00 0.00 0.00 39 1010.1
20260505224204 49 360 7.0 18.0 0.00 0.00 0.00 38 1010.1
20260505224104 49 360 6.0 18.0 0.00 0.00 0.00 38 1010.1
20260505224004 49 360 6.0 18.0 0.00 0.00 0.00 39 1010.1
20260505223905 49 360 6.0 18.0 0.00 0.00 0.00 38 1010.0
20260505223804 49 360 6.0 18.0 0.00 0.00 0.00 38 1009.9
20260505223719 49 360 5.0 18.0 0.00 0.00 0.00 38 1009.9
20260505223604 50 360 4.0 15.0 0.00 0.00 0.00 38 1010.0
20260505223504 50 360 3.0 11.0 0.00 0.00 0.00 38 1009.9
20260505223404 49 360 4.0 13.0 0.00 0.00 0.00 39 1009.9
20260505223305 49 360 5.0 13.0 0.00 0.00 0.00 41 1009.9
20260505223204 49 360 5.0 13.0 0.00 0.00 0.00 41 1010.0
20260505223104 49 360 5.0 13.0 0.00 0.00 0.00 39 1009.9
20260505223004 49 360 5.0 13.0 0.00 0.00 0.00 40 1009.9
20260505222918 49 360 6.0 13.0 0.00 0.00 0.00 40 1010.0
20260505222804 49 360 6.0 13.0 0.00 0.00 0.00 40 1009.9
20260505222705 49 360 7.0 13.0 0.00 0.00 0.00 40 1010.0
20260505222604 48 360 7.0 13.0 0.00 0.00 0.00 40 1010.1
20260505222504 48 360 7.0 13.0 0.00 0.00 0.00 39 1010.1
20260505222404 48 360 7.0 13.0 0.00 0.00 0.00 39 1010.1
20260505222306 48 360 7.0 12.0 0.00 0.00 0.00 39 1010.2
20260505222204 49 360 7.0 13.0 0.00 0.00 0.00 40 1010.2
20260505222104 49 360 7.0 13.0 0.00 0.00 0.00 39 1010.3
20260505222004 49 360 7.0 13.0 0.00 0.00 0.00 39 1010.2
20260505221904 49 360 8.0 13.0 0.00 0.00 0.00 38 1010.3
20260505221804 49 360 7.0 13.0 0.00 0.00 0.00 39 1010.3
20260505221704 49 360 7.0 13.0 0.00 0.00 0.00 39 1010.3
20260505221604 49 360 6.0 13.0 0.00 0.00 0.00 38 1010.3
20260505221504 49 360 7.0 13.0 0.00 0.00 0.00 39 1010.2
20260505221404 49 360 6.0 13.0 0.00 0.00 0.00 39 1010.4
20260505221304 49 360 6.0 13.0 0.00 0.00 0.00 39 1010.3
20260505221204 49 360 6.0 13.0 0.00 0.00 0.00 40 1010.3
20260505221104 49 360 5.0 11.0 0.00 0.00 0.00 39 1010.2
20260505221004 49 360 5.0 10.0 0.00 0.00 0.00 39 1010.1
20260505220904 49 360 5.0 10.0 0.00 0.00 0.00 40 1010.2
20260505220805 49 360 4.0 10.0 0.00 0.00 0.00 39 1010.2
20260505220704 49 360 3.0 10.0 0.00 0.00 0.00 41 1010.2
20260505220604 49 360 3.0 7.0 0.00 0.00 0.00 41 1010.2
20260505220504 49 360 3.0 6.0 0.00 0.00 0.00 40 1010.2
20260505220404 49 360 4.0 13.0 0.00 0.00 0.00 40 1010.2
20260505220304 49 360 4.0 13.0 0.00 0.00 0.00 39 1010.2
20260505220204 49 360 5.0 13.0 0.00 0.00 0.00 40 1010.2
20260505220104 49 360 5.0 13.0 0.00 0.00 0.00 40 1010.2
20260505220004 49 360 5.0 13.0 0.00 0.00 0.00 40 1010.2
20260505215918 49 360 5.0 13.0 0.00 0.00 0.00 41 1010.3
20260505215804 49 360 6.0 13.0 0.00 0.00 0.00 41 1010.2
20260505215704 49 360 7.0 13.0 0.00 0.00 0.00 41 1010.3
20260505215604 49 360 7.0 13.0 0.00 0.00 0.00 40 1010.3
20260505215505 48 360 7.0 13.0 0.00 0.00 0.00 40 1010.3
20260505215404 49 360 6.0 13.0 0.00 0.00 0.00 40 1010.3
20260505215318 49 360 6.0 13.0 0.00 0.00 0.00 40 1010.2
20260505215205 49 360 6.0 13.0 0.00 0.00 0.00 40 1010.2
20260505215104 49 360 6.0 13.0 0.00 0.00 0.00 40 1010.2
20260505215004 49 360 6.0 13.0 0.00 0.00 0.00 40 1010.3
20260505214904 49 360 5.0 13.0 0.00 0.00 0.00 39 1010.3
20260505214805 49 360 6.0 13.0 0.00 0.00 0.00 39 1010.2
20260505214704 49 360 4.0 11.0 0.00 0.00 0.00 40 1010.3
20260505214605 49 360 5.0 18.0 0.00 0.00 0.00 40 1010.3
20260505214504 49 360 6.0 18.0 0.00 0.00 0.00 39 1010.3
20260505214404 49 360 6.0 18.0 0.00 0.00 0.00 39 1010.4
20260505214318 49 360 6.0 18.0 0.00 0.00 0.00 39 1010.3
20260505214218 49 360 6.0 18.0 0.00 0.00 0.00 39 1010.4
20260505214104 49 360 6.0 18.0 0.00 0.00 0.00 39 1010.5
20260505214004 49 360 6.0 18.0 0.00 0.00 0.00 38 1010.3
20260505213918 49 360 7.0 18.0 0.00 0.00 0.00 38 1010.4
20260505213804 49 360 7.0 18.0 0.00 0.00 0.00 39 1010.3
20260505213704 49 360 7.0 18.0 0.00 0.00 0.00 39 1010.3
20260505213604 49 360 6.0 18.0 0.00 0.00 0.00 39 1010.3
20260505213504 49 360 7.0 16.0 0.00 0.00 0.00 39 1010.2
20260505213404 49 360 7.0 16.0 0.00 0.00 0.00 39 1010.3
20260505213304 49 360 7.0 16.0 0.00 0.00 0.00 38 1010.1
20260505213204 49 360 7.0 16.0 0.00 0.00 0.00 39 1010.2
20260505213118 49 360 7.0 16.0 0.00 0.00 0.00 39 1010.2
20260505213018 49 360 7.0 16.0 0.00 0.00 0.00 39 1010.2
20260505212904 49 360 7.0 16.0 0.00 0.00 0.00 38 1010.2
20260505212818 49 360 7.0 16.0 0.00 0.00 0.00 39 1010.2
20260505212704 49 360 6.0 16.0 0.00 0.00 0.00 39 1010.2
20260505212618 49 360 6.0 16.0 0.00 0.00 0.00 38 1010.2
20260505212518 49 360 6.0 16.0 0.00 0.00 0.00 38 1010.2
20260505212405 49 360 6.0 14.0 0.00 0.00 0.00 38 1010.1
20260505212319 49 360 6.0 14.0 0.00 0.00 0.00 38 1010.2
20260505212204 49 360 6.0 14.0 0.00 0.00 0.00 38 1010.2
20260505212104 49 360 6.0 14.0 0.00 0.00 0.00 38 1010.2
20260505212004 49 360 6.0 14.0 0.00 0.00 0.00 39 1010.2
20260505211904 49 360 6.0 14.0 0.00 0.00 0.00 39 1010.2
20260505211805 49 360 6.0 14.0 0.00 0.00 0.00 39 1010.2
20260505211704 50 360 6.0 14.0 0.00 0.00 0.00 39 1010.2
20260505211618 50 360 6.0 14.0 0.00 0.00 0.00 38 1010.2
20260505211504 50 360 6.0 14.0 0.00 0.00 0.00 38 1010.2
20260505211404 50 360 6.0 14.0 0.00 0.00 0.00 38 1010.3
20260505211319 50 360 6.0 13.0 0.00 0.00 0.00 38 1010.4
20260505211218 50 360 5.0 13.0 0.00 0.00 0.00 37 1010.5
20260505211104 50 360 6.0 12.0 0.00 0.00 0.00 39 1010.5
20260505211004 50 360 6.0 12.0 0.00 0.00 0.00 39 1010.6
20260505210905 50 360 6.0 12.0 0.00 0.00 0.00 40 1010.5
20260505210804 50 360 6.0 12.0 0.00 0.00 0.00 38 1010.4
20260505210718 50 360 6.0 12.0 0.00 0.00 0.00 38 1010.4
20260505210604 50 360 5.0 12.0 0.00 0.00 0.00 39 1010.4
20260505210504 49 360 5.0 12.0 0.00 0.00 0.00 40 1010.4
20260505210404 49 360 5.0 12.0 0.00 0.00 0.00 40 1010.3
20260505210304 49 360 5.0 12.0 0.00 0.00 0.00 39 1010.4
20260505210205 49 360 5.0 12.0 0.00 0.00 0.00 40 1010.4
20260505210118 49 360 5.0 12.0 0.00 0.00 0.00 39 1010.4
20260505210005 49 360 5.0 12.0 0.00 0.00 0.00 39 1010.3
20260505205905 49 360 4.0 9.0 0.00 0.00 0.00 39 1010.3
20260505205805 49 360 5.0 9.0 0.00 0.00 0.00 39 1010.4
20260505205704 49 360 5.0 9.0 0.00 0.00 0.00 40 1010.4
20260505205604 49 360 5.0 9.0 0.00 0.00 0.00 40 1010.4
20260505205505 49 360 6.0 9.0 0.00 0.00 0.00 39 1010.3
20260505205418 49 360 7.0 12.0 0.00 0.00 0.00 39 1010.4
20260505205305 49 360 7.0 12.0 0.00 0.00 0.00 39 1010.4
20260505205205 49 360 7.0 12.0 0.00 0.00 0.00 38 1010.4
20260505205104 49 360 6.0 12.0 0.00 0.00 0.00 39 1010.4
20260505205019 49 360 7.0 12.0 0.00 0.00 0.00 39 1010.4
20260505204904 49 360 7.0 12.0 0.00 0.00 0.00 39 1010.3
20260505204805 49 360 7.0 12.0 0.00 0.00 0.00 40 1010.3
20260505204704 49 360 7.0 12.0 0.00 0.00 0.00 39 1010.3
20260505204604 49 360 8.0 16.0 0.00 0.00 0.00 39 1010.3
20260505204504 49 360 8.0 16.0 0.00 0.00 0.00 39 1010.3
20260505204404 49 360 8.0 16.0 0.00 0.00 0.00 39 1010.4
20260505204318 49 360 7.0 16.0 0.00 0.00 0.00 39 1010.4
20260505204218 49 360 7.0 16.0 0.00 0.00 0.00 38 1010.4
20260505204105 49 360 7.0 16.0 0.00 0.00 0.00 38 1010.4
20260505204004 49 360 8.0 16.0 0.00 0.00 0.00 38 1010.5
20260505203904 49 360 8.0 16.0 0.00 0.00 0.00 38 1010.4
20260505203804 49 360 8.0 16.0 0.00 0.00 0.00 38 1010.5
20260505203704 49 360 8.0 16.0 0.00 0.00 0.00 38 1010.5
20260505203618 49 360 7.0 16.0 0.00 0.00 0.00 38 1010.6
20260505203505 49 360 8.0 17.0 0.00 0.00 0.00 39 1010.5
20260505203418 49 360 9.0 17.0 0.00 0.00 0.00 38 1010.5
20260505203304 49 360 8.0 17.0 0.00 0.00 0.00 38 1010.5
20260505203205 49 360 8.0 17.0 0.00 0.00 0.00 37 1010.5
20260505203104 49 360 8.0 17.0 0.00 0.00 0.00 38 1010.5
20260505203004 49 360 8.0 17.0 0.00 0.00 0.00 40 1010.4
20260505202904 49 360 7.0 17.0 0.00 0.00 0.00 40 1010.5
20260505202804 49 360 6.0 17.0 0.00 0.00 0.00 39 1010.5
20260505202704 49 360 6.0 17.0 0.00 0.00 0.00 38 1010.5
20260505202604 49 360 6.0 17.0 0.00 0.00 0.00 38 1010.5
20260505202504 49 360 5.0 17.0 0.00 0.00 0.00 38 1010.5
20260505202405 49 360 4.0 16.0 0.00 0.00 0.00 37 1010.5
20260505202319 49 360 4.0 12.0 0.00 0.00 0.00 39 1010.5
20260505202204 49 360 4.0 12.0 0.00 0.00 0.00 40 1010.5
20260505202105 49 360 4.0 12.0 0.00 0.00 0.00 40 1010.5
20260505202004 49 360 5.0 12.0 0.00 0.00 0.00 39 1010.5
20260505201905 49 360 5.0 12.0 0.00 0.00 0.00 39 1010.5
20260505201804 49 360 5.0 12.0 0.00 0.00 0.00 40 1010.5
20260505201704 49 360 6.0 12.0 0.00 0.00 0.00 40 1010.5
20260505201618 49 360 6.0 12.0 0.00 0.00 0.00 39 1010.4
20260505201504 49 360 6.0 12.0 0.00 0.00 0.00 39 1010.5
20260505201418 49 360 6.0 12.0 0.00 0.00 0.00 39 1010.5
20260505201318 49 360 6.0 12.0 0.00 0.00 0.00 39 1010.4
20260505201204 49 360 6.0 12.0 0.00 0.00 0.00 39 1010.5
20260505201118 48 360 6.0 12.0 0.00 0.00 0.00 40 1010.5
20260505201005 48 360 5.0 12.0 0.00 0.00 0.00 39 1010.4
20260505200904 48 360 5.0 12.0 0.00 0.00 0.00 39 1010.4
20260505200804 48 360 6.0 12.0 0.00 0.00 0.00 39 1010.3
20260505200704 48 360 5.0 12.0 0.00 0.00 0.00 38 1010.4
20260505200604 48 360 5.0 10.0 0.00 0.00 0.00 38 1010.5
20260505200504 49 360 4.0 10.0 0.00 0.00 0.00 39 1010.6
20260505200404 49 360 4.0 10.0 0.00 0.00 0.00 39 1010.6
20260505200304 49 360 4.0 10.0 0.00 0.00 0.00 39 1010.6
20260505200205 49 360 6.0 14.0 0.00 0.00 0.00 38 1010.6
20260505200104 49 360 6.0 14.0 0.00 0.00 0.00 38 1010.6
20260505200004 49 360 6.0 14.0 0.00 0.00 0.00 38 1010.6
20260505195904 49 360 6.0 14.0 0.00 0.00 0.00 38 1010.7
20260505195805 49 360 6.0 14.0 0.00 0.00 0.00 40 1010.6
20260505195705 49 360 6.0 14.0 0.00 0.00 0.00 40 1010.6